[[{"header":{"parameterUnit":"m.s-1","parameterCategory":1,"la1":30.6,"la2":29.2853,"lo1":-89.7004,"lo2":-87.6739,"dy":0.0162,"dx":0.0183,"nx":112,"ny":82,"refTime":"2023-03-08T18:00:00:Z","depth":0,"parameterNumber":2,"parameterNumberName":"U-component_of_WINDS"},"data":[0.0,0.0,0.0,0.0,0.0,0.0,0.0,0.0,0.0,0.0,0.0,0.0,0.0,0.0,0.0,0.0,0.0,0.0,0.0,0.0,0.0,0.0,0.0,0.0,0.0,0.0,0.0,0.0,0.0,0.0,0.0,0.0,0.0,0.0,0.0,0.0,0.0,0.0,0.0,0.0,0.0,0.0,0.0,0.0,0.0,0.0,0.0,0.0,0.0,0.0,0.0,0.0,0.0,0.0,0.0,0.0,0.0,0.0,0.0,0.0,0.0,0.0,0.0,0.0,0.0,0.0,0.0,0.0,0.0,0.0,0.0,0.0,0.0,0.0,0.0,0.0,0.0,0.0,0.0,0.0,0.0,0.0,0.0,0.0,0.0,0.0,0.0,0.0,0.0,0.0,0.0,6.8627,6.8892,6.9007,6.9007,6.9007,6.8984,6.8911,0.0,0.0,0.0,0.0,0.0,0.0,0.0,0.0,0.0,0.0,0.0,0.0,0.0,0.0,0.0,0.0,0.0,0.0,0.0,0.0,0.0,0.0,0.0,0.0,0.0,0.0,0.0,0.0,0.0,0.0,0.0,0.0,0.0,0.0,0.0,0.0,0.0,0.0,0.0,0.0,0.0,0.0,0.0,0.0,0.0,0.0,0.0,0.0,0.0,0.0,0.0,0.0,0.0,0.0,0.0,0.0,0.0,0.0,0.0,0.0,0.0,0.0,0.0,0.0,0.0,0.0,0.0,0.0,0.0,0.0,0.0,0.0,0.0,0.0,0.0,0.0,0.0,0.0,0.0,0.0,0.0,0.0,0.0,0.0,0.0,0.0,0.0,0.0,0.0,0.0,0.0,0.0,0.0,0.0,0.0,0.0,0.0,0.0,0.0,0.0,0.0,0.0,0.0,0.0,6.8693,6.9663,7.0451,7.086,7.0815,7.0815,7.0744,7.0619,0.0,0.0,0.0,0.0,0.0,0.0,0.0,0.0,0.0,0.0,0.0,0.0,0.0,0.0,0.0,0.0,0.0,0.0,0.0,0.0,0.0,0.0,0.0,0.0,0.0,0.0,0.0,0.0,0.0,0.0,0.0,0.0,0.0,0.0,0.0,0.0,0.0,0.0,0.0,0.0,0.0,0.0,0.0,0.0,0.0,0.0,0.0,0.0,0.0,0.0,0.0,0.0,0.0,0.0,0.0,0.0,0.0,0.0,0.0,0.0,0.0,0.0,0.0,0.0,0.0,0.0,0.0,0.0,0.0,0.0,0.0,0.0,0.0,0.0,0.0,0.0,0.0,0.0,0.0,0.0,0.0,0.0,0.0,0.0,0.0,0.0,0.0,0.0,0.0,0.0,0.0,0.0,0.0,0.0,0.0,0.0,0.0,0.0,0.0,0.0,0.0,0.0,0.0,6.964,7.0088,7.0645,7.1037,7.1291,7.1247,7.1247,7.1201,7.1056,7.0323,0.0,0.0,0.0,0.0,0.0,0.0,0.0,0.0,0.0,0.0,0.0,0.0,0.0,0.0,0.0,0.0,0.0,0.0,0.0,0.0,0.0,0.0,0.0,0.0,0.0,0.0,0.0,0.0,0.0,0.0,0.0,0.0,0.0,0.0,0.0,0.0,0.0,0.0,0.0,0.0,0.0,0.0,0.0,0.0,0.0,0.0,0.0,0.0,0.0,0.0,0.0,0.0,0.0,0.0,0.0,0.0,0.0,0.0,0.0,0.0,0.0,0.0,0.0,0.0,0.0,0.0,0.0,0.0,0.0,0.0,0.0,0.0,0.0,0.0,0.0,0.0,0.0,0.0,0.0,0.0,0.0,0.0,0.0,0.0,0.0,0.0,0.0,0.0,0.0,0.0,0.0,0.0,0.0,0.0,0.0,0.0,0.0,0.0,0.0,0.0,0.0,0.0,7.0744,7.1175,7.1291,7.1291,7.1291,7.1291,7.1291,7.1247,7.1106,7.1106,0.0,0.0,0.0,0.0,0.0,0.0,0.0,0.0,0.0,0.0,0.0,0.0,0.0,0.0,0.0,0.0,0.0,0.0,0.0,0.0,0.0,0.0,0.0,0.0,0.0,0.0,0.0,0.0,0.0,0.0,0.0,0.0,0.0,0.0,0.0,0.0,0.0,0.0,0.0,0.0,0.0,0.0,0.0,0.0,0.0,0.0,0.0,0.0,0.0,0.0,0.0,0.0,0.0,0.0,0.0,0.0,0.0,0.0,0.0,0.0,0.0,0.0,0.0,0.0,0.0,0.0,0.0,0.0,0.0,0.0,0.0,0.0,0.0,0.0,0.0,0.0,0.0,0.0,0.0,0.0,0.0,0.0,0.0,0.0,0.0,0.0,0.0,0.0,0.0,0.0,0.0,0.0,0.0,0.0,0.0,0.0,0.0,0.0,0.0,0.0,0.0,0.0,7.1154,7.1291,7.1291,7.1291,7.1291,7.1291,7.1291,7.1247,7.1106,7.1106,0.0,0.0,0.0,0.0,0.0,0.0,0.0,0.0,0.0,0.0,0.0,0.0,0.0,0.0,0.0,0.0,0.0,0.0,0.0,0.0,0.0,0.0,0.0,0.0,0.0,0.0,0.0,0.0,0.0,0.0,0.0,0.0,0.0,0.0,0.0,0.0,0.0,0.0,0.0,0.0,0.0,0.0,0.0,0.0,0.0,0.0,0.0,0.0,0.0,0.0,0.0,0.0,0.0,0.0,0.0,0.0,0.0,0.0,0.0,0.0,0.0,0.0,0.0,0.0,0.0,0.0,0.0,0.0,0.0,0.0,0.0,0.0,0.0,0.0,0.0,0.0,0.0,0.0,0.0,0.0,0.0,0.0,0.0,0.0,0.0,0.0,0.0,0.0,0.0,0.0,0.0,0.0,0.0,0.0,0.0,0.0,0.0,0.0,0.0,0.0,0.0,0.0,7.202,7.228,0.0,7.2921,7.29,7.2916,7.2916,7.2894,7.28,0.0,0.0,0.0,0.0,0.0,0.0,0.0,0.0,0.0,0.0,0.0,0.0,0.0,0.0,0.0,0.0,0.0,0.0,0.0,0.0,0.0,0.0,0.0,0.0,0.0,0.0,0.0,0.0,0.0,0.0,0.0,0.0,0.0,0.0,0.0,0.0,0.0,0.0,0.0,0.0,0.0,0.0,0.0,0.0,0.0,0.0,0.0,0.0,0.0,0.0,0.0,0.0,0.0,0.0,0.0,0.0,0.0,0.0,0.0,0.0,0.0,0.0,0.0,0.0,0.0,0.0,0.0,0.0,0.0,0.0,0.0,0.0,0.0,0.0,0.0,0.0,0.0,0.0,0.0,0.0,0.0,0.0,0.0,0.0,0.0,0.0,0.0,0.0,0.0,0.0,0.0,0.0,0.0,0.0,0.0,0.0,0.0,0.0,0.0,0.0,0.0,0.0,7.2761,7.2938,7.3187,0.0,7.3906,7.3906,7.3899,7.3922,7.386,7.3775,0.0,0.0,0.0,0.0,0.0,0.0,0.0,0.0,0.0,0.0,0.0,0.0,0.0,0.0,0.0,0.0,0.0,0.0,0.0,0.0,0.0,0.0,0.0,0.0,0.0,0.0,0.0,0.0,0.0,0.0,0.0,0.0,0.0,0.0,0.0,0.0,0.0,0.0,0.0,0.0,0.0,0.0,0.0,0.0,0.0,0.0,0.0,0.0,0.0,0.0,0.0,0.0,0.0,0.0,0.0,0.0,0.0,0.0,0.0,0.0,0.0,0.0,0.0,0.0,0.0,0.0,0.0,0.0,0.0,0.0,0.0,0.0,0.0,0.0,0.0,0.0,0.0,0.0,0.0,0.0,0.0,0.0,0.0,0.0,0.0,0.0,0.0,0.0,0.0,0.0,0.0,0.0,0.0,0.0,0.0,0.0,0.0,0.0,0.0,0.0,0.0,0.0,7.3695,7.3883,7.3914,7.3914,7.3914,7.3914,7.3914,7.3914,7.3899,0.0,0.0,0.0,0.0,0.0,0.0,0.0,0.0,0.0,0.0,0.0,0.0,0.0,0.0,0.0,0.0,0.0,0.0,0.0,0.0,0.0,0.0,0.0,0.0,0.0,0.0,0.0,0.0,0.0,0.0,0.0,0.0,0.0,0.0,0.0,0.0,0.0,0.0,0.0,0.0,0.0,0.0,0.0,0.0,0.0,0.0,0.0,0.0,0.0,0.0,0.0,0.0,0.0,0.0,0.0,0.0,0.0,0.0,0.0,0.0,0.0,0.0,0.0,0.0,0.0,0.0,0.0,0.0,0.0,0.0,0.0,0.0,0.0,0.0,0.0,0.0,0.0,0.0,0.0,0.0,0.0,0.0,0.0,0.0,0.0,0.0,0.0,0.0,0.0,0.0,0.0,0.0,0.0,0.0,0.0,0.0,0.0,0.0,0.0,0.0,0.0,0.0,0.0,7.4618,7.4711,7.4982,7.5624,7.5662,7.5662,7.5662,7.5662,7.5662,7.5624,0.0,0.0,0.0,0.0,0.0,0.0,0.0,0.0,0.0,0.0,0.0,0.0,0.0,0.0,0.0,0.0,0.0,0.0,0.0,0.0,0.0,0.0,0.0,0.0,0.0,0.0,0.0,0.0,0.0,0.0,0.0,0.0,0.0,0.0,0.0,0.0,0.0,0.0,0.0,0.0,0.0,0.0,0.0,0.0,0.0,0.0,0.0,0.0,0.0,0.0,0.0,0.0,0.0,0.0,0.0,0.0,0.0,0.0,0.0,0.0,0.0,0.0,0.0,0.0,0.0,0.0,0.0,0.0,0.0,0.0,0.0,0.0,0.0,0.0,0.0,0.0,0.0,0.0,0.0,0.0,0.0,0.0,0.0,0.0,0.0,0.0,0.0,0.0,0.0,0.0,0.0,0.0,0.0,0.0,0.0,0.0,0.0,0.0,0.0,0.0,0.0,0.0,7.5484,7.5624,7.5817,7.632,7.6397,7.6397,7.6397,7.6397,7.6397,7.6397,0.0,0.0,0.0,0.0,0.0,0.0,0.0,0.0,0.0,0.0,0.0,0.0,0.0,0.0,0.0,0.0,0.0,0.0,0.0,0.0,0.0,0.0,0.0,0.0,0.0,0.0,0.0,0.0,0.0,0.0,0.0,0.0,0.0,0.0,0.0,0.0,0.0,0.0,0.0,0.0,0.0,0.0,0.0,0.0,0.0,0.0,0.0,0.0,0.0,0.0,0.0,0.0,0.0,0.0,0.0,0.0,0.0,0.0,0.0,0.0,0.0,0.0,0.0,0.0,0.0,0.0,0.0,0.0,0.0,0.0,0.0,0.0,0.0,0.0,0.0,0.0,0.0,0.0,0.0,0.0,0.0,0.0,0.0,0.0,0.0,0.0,0.0,0.0,0.0,0.0,0.0,0.0,0.0,0.0,0.0,0.0,0.0,0.0,0.0,0.0,0.0,0.0,7.6281,7.6397,7.6397,7.6397,7.6397,7.6397,7.6397,7.6397,7.6397,7.6397,0.0,0.0,0.0,0.0,0.0,0.0,0.0,0.0,0.0,0.0,0.0,0.0,0.0,0.0,0.0,0.0,0.0,0.0,0.0,0.0,0.0,0.0,0.0,0.0,0.0,0.0,0.0,0.0,0.0,0.0,0.0,0.0,0.0,0.0,0.0,0.0,0.0,0.0,0.0,0.0,0.0,0.0,0.0,0.0,0.0,0.0,0.0,0.0,0.0,0.0,0.0,0.0,0.0,0.0,0.0,0.0,0.0,0.0,0.0,0.0,6.6727,0.0,0.0,0.0,0.0,0.0,0.0,0.0,0.0,0.0,0.0,0.0,0.0,0.0,0.0,0.0,0.0,0.0,0.0,0.0,0.0,0.0,0.0,0.0,0.0,0.0,0.0,0.0,0.0,0.0,0.0,0.0,0.0,0.0,0.0,0.0,0.0,0.0,0.0,0.0,0.0,0.0,7.6359,7.6397,7.6397,7.6397,7.6397,7.6397,7.6397,7.6397,7.6397,7.6397,7.6397,0.0,0.0,0.0,0.0,0.0,0.0,0.0,0.0,0.0,0.0,0.0,0.0,0.0,0.0,0.0,0.0,0.0,0.0,0.0,0.0,0.0,0.0,0.0,0.0,0.0,0.0,0.0,0.0,0.0,0.0,0.0,0.0,0.0,0.0,0.0,0.0,0.0,0.0,0.0,0.0,0.0,0.0,0.0,0.0,0.0,0.0,0.0,0.0,0.0,0.0,0.0,0.0,0.0,0.0,0.0,0.0,0.0,0.0,0.0,0.0,6.7969,0.0,0.0,0.0,0.0,0.0,0.0,0.0,0.0,0.0,0.0,0.0,0.0,0.0,0.0,0.0,0.0,0.0,0.0,0.0,0.0,0.0,0.0,0.0,0.0,0.0,0.0,0.0,0.0,0.0,0.0,0.0,0.0,0.0,0.0,0.0,0.0,0.0,0.0,0.0,0.0,7.6397,7.6397,7.6397,7.6397,7.6397,7.6397,7.6397,7.6397,7.6397,7.6397,7.6397,0.0,0.0,0.0,0.0,0.0,0.0,0.0,0.0,0.0,0.0,0.0,0.0,0.0,0.0,0.0,0.0,0.0,0.0,0.0,0.0,0.0,0.0,0.0,0.0,0.0,0.0,0.0,0.0,0.0,0.0,0.0,0.0,0.0,0.0,0.0,0.0,0.0,0.0,0.0,0.0,0.0,0.0,0.0,0.0,0.0,0.0,0.0,0.0,0.0,0.0,0.0,0.0,0.0,0.0,6.9726,6.9922,6.9922,7.0,7.0078,7.0156,6.9883,6.9414,0.0,0.0,0.0,0.0,0.0,0.0,0.0,0.0,0.0,0.0,0.0,0.0,0.0,0.0,0.0,0.0,0.0,0.0,0.0,0.0,0.0,0.0,0.0,0.0,0.0,7.4583,7.4691,0.0,0.0,0.0,0.0,0.0,0.0,0.0,0.0,0.0,0.0,0.0,0.0,7.6397,7.6397,7.6397,7.6397,7.6397,7.6397,7.6397,7.6397,7.6397,7.6397,7.6397,7.6397,0.0,0.0,0.0,0.0,0.0,0.0,0.0,0.0,0.0,0.0,0.0,0.0,0.0,0.0,0.0,0.0,0.0,0.0,0.0,0.0,0.0,0.0,0.0,0.0,0.0,0.0,0.0,0.0,0.0,0.0,0.0,0.0,6.3878,6.3994,0.0,0.0,0.0,0.0,0.0,0.0,0.0,0.0,0.0,0.0,0.0,0.0,0.0,0.0,6.9336,6.9375,6.9805,7.0547,7.0547,7.0937,7.168,7.168,7.207,7.2773,7.2812,0.0,6.9414,6.9453,0.0,0.0,0.0,0.0,0.0,0.0,0.0,0.0,0.0,0.0,0.0,0.0,0.0,0.0,0.0,0.0,0.0,0.0,0.0,0.0,0.0,0.0,7.4751,7.5503,7.5677,7.5907,0.0,7.5417,7.4431,7.5171,0.0,0.0,0.0,0.0,0.0,0.0,0.0,0.0,7.6397,7.6397,7.6397,7.6397,7.6397,7.6397,7.6397,7.6397,7.6397,7.6397,7.6397,7.6397,7.6397,7.6397,0.0,0.0,0.0,0.0,0.0,0.0,0.0,0.0,0.0,0.0,0.0,0.0,0.0,0.0,0.0,0.0,0.0,0.0,0.0,0.0,0.0,0.0,0.0,0.0,0.0,0.0,0.0,0.0,0.0,6.4122,6.4485,6.5496,6.5137,6.5234,0.0,0.0,0.0,0.0,0.0,0.0,0.0,0.0,0.0,7.0117,7.0156,7.039,7.0898,7.1367,7.1797,7.2187,7.2656,7.3086,7.3476,7.3476,7.3672,7.4023,7.4023,7.3398,7.2305,7.2344,7.2578,7.2851,0.0,0.0,0.0,0.0,0.0,7.2147,7.2619,0.0,0.0,0.0,0.0,0.0,0.0,0.0,0.0,0.0,0.0,0.0,0.0,0.0,0.0,7.651,7.6634,7.6757,7.7126,7.6492,7.5985,0.0,7.6326,7.6417,7.6588,0.0,0.0,0.0,0.0,0.0,7.6397,7.6475,7.6668,7.7079,7.7195,7.7427,7.7814,7.7427,7.7117,7.7117,7.6668,7.6397,7.6397,7.6397,7.6397,0.0,0.0,0.0,0.0,0.0,0.0,0.0,0.0,0.0,0.0,0.0,0.0,0.0,0.0,0.0,0.0,0.0,0.0,0.0,0.0,0.0,0.0,0.0,0.0,0.0,0.0,0.0,0.0,6.5273,6.5703,6.707,6.6758,6.6992,0.0,0.0,0.0,0.0,0.0,0.0,6.9726,7.0195,7.0742,7.1367,7.1562,7.1992,7.2656,7.332,7.3633,7.3633,7.4297,7.4609,7.4609,7.4609,7.4726,7.4922,7.4922,7.5078,7.5234,7.4765,7.4609,7.4609,7.4609,7.4609,0.0,7.4609,7.4531,7.4492,7.4805,7.4883,7.4805,7.5039,0.0,7.5061,7.4944,0.0,0.0,0.0,0.0,7.5921,7.6054,0.0,7.7103,7.7176,7.7187,7.7187,7.7187,7.7187,7.7187,0.0,7.7031,7.6974,7.6747,0.0,0.0,0.0,0.0,7.6808,7.6846,7.7117,7.7517,7.8085,7.818,7.8471,7.9013,7.8433,7.8046,7.8007,7.7427,7.7079,7.7079,7.6846,7.6707,7.6707,0.0,0.0,0.0,0.0,0.0,0.0,0.0,0.0,0.0,0.0,0.0,0.0,0.0,0.0,0.0,0.0,0.0,0.0,0.0,0.0,0.0,0.0,0.0,0.0,0.0,0.0,0.0,0.0,0.0,6.8125,6.875,0.0,0.0,0.0,0.0,6.9414,7.0156,7.0625,7.0625,7.2226,7.3125,7.3164,7.3984,7.4414,7.4453,7.4492,7.4531,7.4531,7.457,7.4609,7.4609,7.4609,7.5039,7.582,7.582,7.6289,7.6953,7.5273,7.4609,7.4609,7.4609,7.4609,7.4609,7.4609,7.4609,7.4726,7.5547,7.582,7.5976,7.6797,7.6953,7.6875,7.6875,7.6783,0.0,0.0,7.6885,7.6944,7.7078,7.7147,7.7186,7.7187,7.7187,7.7187,7.7187,7.7187,7.7187,0.0,7.7187,7.7148,7.699,0.0,7.6808,7.6808,7.7388,7.7852,7.8031,7.8727,7.9269,7.9327,7.9213,7.9133,7.9172,7.9017,7.8926,7.8921,7.8882,7.8882,7.8882,7.8069,7.762,7.762,7.6846,0.0,0.0,0.0,0.0,0.0,0.0,0.0,0.0,0.0,0.0,0.0,0.0,0.0,0.0,0.0,0.0,0.0,0.0,0.0,0.0,0.0,0.0,0.0,0.0,0.0,0.0,0.0,0.0,6.9023,6.9258,0.0,7.0234,7.0273,7.0742,7.1836,7.2187,7.2617,7.3164,7.3789,7.414,7.414,7.4453,7.4609,7.4609,7.5156,7.543,7.543,7.6015,7.6289,7.6289,7.6289,7.6445,7.6758,7.6758,7.6914,7.7148,7.6523,7.6289,7.6289,7.6289,7.6289,7.6289,7.6289,7.6289,7.6328,7.664,7.6758,7.6797,7.7109,7.7187,7.7148,7.7148,7.7105,7.7078,7.7106,7.7129,7.716,7.7184,7.7187,7.7187,7.7187,7.7187,7.7187,7.7187,7.7187,7.7383,7.793,7.7578,7.7344,7.7773,7.7786,7.7935,7.8391,7.8689,7.8882,7.8921,7.9725,8.0498,8.0976,8.1485,8.1961,8.2429,8.1349,8.0589,8.0638,7.9608,7.9003,7.9003,7.8694,7.8525,7.8534,7.7659,7.7233,0.0,0.0,0.0,0.0,0.0,0.0,0.0,0.0,0.0,0.0,0.0,0.0,0.0,0.0,0.0,0.0,0.0,0.0,0.0,0.0,0.0,0.0,0.0,0.0,0.0,0.0,6.9844,6.9883,7.0117,7.0625,7.1484,7.1562,7.2187,7.3633,7.375,7.3984,7.457,7.4883,7.5039,7.5039,7.5312,7.5469,7.5469,7.6055,7.6328,7.6367,7.6914,7.7187,7.7187,7.7187,7.7187,7.7187,7.7187,7.7187,7.7187,7.7187,7.7187,7.7187,7.7187,7.7187,7.7187,7.7187,7.7187,7.7187,7.7187,7.7187,7.7187,7.7187,7.7187,7.7187,7.7187,7.7187,7.7187,7.7187,7.7187,7.7187,7.7187,7.7187,7.7265,7.7578,7.7656,7.7695,7.7969,7.8047,7.8203,7.8789,7.8203,7.789,7.8633,7.875,7.8981,7.9748,8.0121,8.0412,8.0714,8.1584,8.2383,8.2851,8.3398,8.3887,8.4311,8.3206,8.2432,8.2355,8.1349,8.0589,8.028,8.0009,7.9699,7.94,7.8549,7.8147,7.8147,0.0,0.0,0.0,0.0,0.0,0.0,0.0,0.0,0.0,0.0,0.0,0.0,0.0,0.0,0.0,0.0,0.0,0.0,0.0,0.0,0.0,0.0,0.0,6.9648,7.0273,7.0781,7.0781,7.1562,7.2422,7.3242,7.3359,7.3711,7.457,7.4648,7.4648,7.4687,7.5469,7.5937,7.5937,7.6758,7.7187,7.7187,7.7187,7.7187,7.7187,7.7187,7.7187,7.7187,7.7187,7.7187,7.7187,7.7187,7.7187,7.7187,7.7187,7.7226,7.7226,7.7226,7.7187,7.7187,7.7187,7.7187,7.7187,7.7187,7.7187,7.7187,7.7187,7.7187,7.7187,7.7187,7.7226,7.7226,7.7226,7.7265,7.7265,7.7265,7.7265,7.75,7.8359,7.8555,7.875,7.957,7.9726,7.9765,7.9805,7.918,7.8906,7.9648,7.9765,7.9996,8.0826,8.1644,0.0,8.3354,8.4336,8.4961,8.4961,8.4883,8.4746,8.4621,8.4456,8.4301,8.4121,8.4146,8.3734,8.2883,8.2045,8.1169,8.028,7.9439,7.9037,7.8998,0.0,0.0,0.0,0.0,0.0,0.0,0.0,0.0,0.0,0.0,0.0,0.0,0.0,0.0,0.0,0.0,0.0,0.0,0.0,0.0,0.0,0.0,7.2056,7.0586,7.164,7.2578,7.2578,7.3359,7.3984,7.4219,7.4258,7.4608,7.5486,7.5542,7.5819,7.6462,7.6716,7.6836,7.6836,7.707,7.7187,7.7187,7.7187,7.7187,7.7187,7.7187,7.7187,7.7187,7.7187,7.7187,7.7187,7.7187,7.7187,7.7187,7.7187,7.7578,7.8086,7.7461,7.7187,7.7187,7.7187,7.7187,7.7187,7.7187,7.7187,7.7187,7.7187,7.7187,7.7187,7.7187,7.7656,7.8125,7.8125,7.8555,7.9023,7.9023,7.9023,7.9062,7.9297,7.9375,7.9609,8.0469,8.0625,8.1015,8.2265,8.2344,8.207,8.164,8.2109,8.2809,8.3653,0.0,0.0,8.4446,8.5273,8.6015,8.6523,8.6992,8.726,8.7127,8.6438,8.5655,8.5024,8.4495,8.4147,8.3915,8.3747,8.2921,8.1349,8.0459,7.9685,0.0,0.0,0.0,0.0,0.0,0.0,0.0,0.0,0.0,0.0,0.0,0.0,0.0,0.0,0.0,0.0,0.0,0.0,0.0,0.0,0.0,0.0,7.351,7.349,7.2461,7.3203,7.3828,7.3828,7.4297,7.4726,7.5111,7.5147,7.5496,7.6391,7.6403,7.6639,7.7172,7.7186,7.7148,7.7148,7.7148,7.7187,7.7187,7.7187,7.7383,7.7695,7.7734,7.793,7.8242,7.8242,7.8242,0.0,7.8242,7.8242,7.8242,7.8242,7.8555,0.0,0.0,0.0,0.0,0.0,7.8242,7.8242,7.8242,7.8242,7.8242,7.8242,7.8242,7.8242,7.8242,7.8594,7.8984,7.8984,7.9336,7.9687,7.9687,7.9961,8.0351,8.0703,8.1054,8.1562,8.2461,8.2617,8.2929,8.3945,0.0,0.0,8.457,8.4297,8.4531,8.5703,8.5916,8.6232,0.0,8.7436,8.7929,8.832,8.8767,8.8935,8.874,8.8183,0.0,0.0,0.0,8.615,8.5471,8.484,0.0,0.0,0.0,8.1581,0.0,0.0,0.0,0.0,7.8128,7.7626,0.0,0.0,0.0,0.0,0.0,0.0,0.0,0.0,0.0,0.0,0.0,0.0,0.0,0.0,0.0,0.0,7.4686,7.474,7.4764,7.4804,7.4843,7.4765,7.4843,7.5189,7.5975,7.6053,7.6349,7.7148,7.7148,7.7148,7.7187,0.0,0.0,0.0,0.0,7.7265,7.7343,7.7422,7.7851,7.8555,7.8593,7.9062,7.9844,7.9844,7.9883,8.0,8.0,8.0,8.0,8.0,8.0039,8.0039,7.9023,7.9062,7.9687,7.9687,7.9687,0.0,0.0,0.0,0.0,7.9687,7.9687,7.9726,7.9805,7.9922,8.0,8.0117,8.0195,8.0273,8.0273,8.0859,8.164,8.2422,8.3164,8.4023,8.4961,8.5195,8.5234,8.5429,8.6719,8.7773,8.7773,8.6484,8.5937,8.7304,8.7656,0.0,8.9659,8.9926,9.0039,9.0117,0.0,0.0,8.9754,8.9704,8.9565,8.9228,8.9358,8.8818,8.7382,8.5742,8.4765,8.4648,8.4465,8.3889,8.2973,8.2999,8.2161,8.0628,7.9594,7.9091,0.0,0.0,0.0,0.0,0.0,0.0,0.0,0.0,0.0,0.0,0.0,0.0,0.0,0.0,0.0,7.4552,7.5181,7.5646,7.5633,7.6219,7.6375,7.5712,7.6219,7.6683,7.6867,7.6863,7.6952,7.7109,7.7109,7.7106,7.7122,7.7117,0.0,7.7117,7.7781,7.8132,7.8171,7.8864,7.9297,7.9453,0.0,0.0,8.0742,8.0742,8.1133,8.1797,8.1797,8.1797,8.1797,8.1797,8.2226,8.2617,8.0351,7.957,7.9687,7.9687,7.9687,7.9687,7.9687,7.9687,7.9687,7.9687,7.9687,7.9844,8.0547,8.125,0.0,8.2656,8.3359,8.3906,8.3906,8.4023,8.4179,8.4375,8.4531,8.5078,8.664,8.6992,8.7383,8.875,8.9297,8.9531,8.9531,8.9258,8.9101,8.9414,8.9492,8.9607,8.9935,8.9994,9.0234,9.082,9.0884,9.078,9.0494,9.0489,9.013,8.9251,8.943,8.9517,8.9414,8.7812,8.6875,8.6719,8.5326,8.4456,8.4185,8.4082,8.3836,8.3463,8.1078,7.9622,0.0,0.0,0.0,0.0,0.0,0.0,0.0,0.0,0.0,0.0,0.0,7.4725,0.0,0.0,7.5389,7.579,7.6224,7.6492,7.6516,7.6867,7.6945,7.6555,7.6853,7.7097,7.7097,7.7097,7.7097,7.7097,7.7097,7.7286,7.7726,7.7765,7.796,7.839,7.8819,7.9248,7.9717,8.0133,8.0776,8.164,8.1633,8.2104,8.2969,8.2969,8.3203,8.3594,8.3594,8.3594,8.3594,8.3594,8.3867,8.4101,8.2812,8.2304,8.2304,8.2304,8.2304,8.2304,8.2304,8.2304,8.2304,8.2304,8.2304,8.2383,8.2812,8.3242,8.3672,8.414,8.457,8.4883,8.4883,8.5547,8.6211,8.6211,8.6836,8.7695,8.8554,8.875,8.8984,8.9844,9.0351,9.0664,9.0664,9.1015,9.1133,9.0703,9.0664,9.082,9.125,9.1289,9.1445,9.1797,9.1836,9.1773,9.1566,9.1484,9.1251,9.0837,9.054,9.0429,9.0625,8.9414,8.8672,8.8554,8.7681,8.6975,8.639,8.5889,8.5423,8.4908,8.3102,8.202,0.0,0.0,0.0,0.0,0.0,0.0,0.0,7.4725,7.4842,7.4842,7.4998,7.5306,7.6014,7.6125,7.636,7.6984,7.7101,7.7101,7.7107,7.7101,7.7101,7.7101,7.7097,7.7108,7.7108,7.7087,7.7179,7.7335,7.7335,7.7726,7.8624,7.8663,7.9053,7.9912,8.0119,8.0631,8.149,8.1647,8.2445,8.3828,8.3867,8.4297,8.5156,8.5312,8.5469,8.5664,8.582,8.5898,8.5898,8.5898,8.5898,8.5898,8.5898,8.5898,8.582,8.5156,8.4883,8.4883,8.4883,8.4883,8.4883,8.4883,8.5,8.5195,8.5351,8.5508,8.5664,8.5859,8.5898,8.5898,8.5898,8.6914,8.8008,8.8008,8.9023,9.0039,9.0234,9.0234,9.0312,9.0469,9.1054,9.1562,9.1562,9.2148,9.2344,9.164,9.1562,9.1797,9.25,9.2617,9.2617,9.2617,9.2617,9.2535,9.242,9.2238,9.22,9.2394,9.1757,9.1406,9.1562,9.0703,9.0195,9.0078,8.9922,8.9453,8.8633,8.791,8.7126,8.6377,8.5616,8.4869,7.4218,7.4374,7.434,7.4447,7.4525,7.4603,0.0,7.5194,7.574,7.574,7.6331,7.6834,7.6945,7.6984,7.6984,7.7101,7.7101,7.7107,7.7083,7.7112,7.7101,7.7101,7.7107,7.7112,7.7112,7.7107,7.7414,7.8194,7.8233,7.8624,7.9522,7.9561,7.9951,8.0849,8.1592,8.2382,8.3202,8.3983,8.4453,8.4687,8.4726,8.5195,8.5976,8.6758,8.7539,8.832,8.9101,8.9414,8.9414,8.9414,8.9414,8.9414,8.9414,8.9414,8.9062,8.6015,8.4883,8.4883,8.4883,8.4883,8.4883,8.4883,8.5429,8.6211,8.6953,8.7695,8.8437,8.9219,8.9414,8.9414,8.9414,8.957,8.9726,8.9726,8.9844,9.0195,9.0976,9.1133,9.1367,9.2148,9.2383,9.2461,9.2461,9.2539,9.2578,9.2461,9.2461,9.25,9.2578,9.2617,9.2617,9.2617,9.2617,9.2538,9.2411,9.2216,9.2177,9.2372,9.2303,9.2304,9.2461,9.1601,9.1133,9.1133,9.0351,8.9922,8.9804,8.9606,8.9387,8.9178,8.8945,8.7112,7.4447,7.5266,7.593,7.5423,7.5696,7.6047,7.6047,7.636,7.6594,7.6594,7.6867,7.7101,7.7101,7.7101,7.7101,0.0,7.7101,7.7101,7.7112,7.7107,7.7101,7.7101,7.7531,7.7648,7.714,7.757,7.7999,7.835,7.8858,7.9756,8.1122,8.12,8.1825,8.3152,8.3565,8.4159,8.498,8.5878,8.6581,8.7092,8.76,8.803,8.8381,8.8733,8.9123,8.9475,8.9842,8.9996,8.9982,8.9982,8.9992,9.0,9.0,9.0,8.9844,8.8398,8.7851,8.7851,8.7851,8.7851,8.7851,8.7851,8.8125,8.8476,8.8828,8.9179,8.9531,8.9883,9.0,9.0,9.0,9.039,9.0742,9.0742,9.1133,9.1601,9.1992,9.207,9.2148,9.2539,9.2617,9.2617,9.2617,9.2617,9.2617,9.2617,9.2617,9.2617,9.2617,9.2617,9.2617,9.2617,9.2617,9.2578,9.2539,9.2422,9.2422,9.25,9.2539,9.2539,9.2617,9.2265,9.207,9.207,9.1719,9.1523,9.1523,9.0937,9.0568,9.0362,8.9771,8.8632,7.5227,7.6125,7.6945,7.632,7.6633,7.7101,7.7101,7.7101,7.7101,7.7101,7.7101,7.7101,7.7101,7.7101,7.7101,7.7101,7.7101,7.7101,7.7101,7.7296,7.7453,7.7453,7.8233,7.8624,7.8194,7.8546,7.8975,7.9444,8.0068,8.1161,8.2918,8.2996,8.366,8.5104,8.5377,8.5917,8.6822,8.7681,8.8422,8.9086,8.9711,8.9984,9.0023,9.0257,9.0492,9.0726,9.0689,9.0685,9.0726,9.0726,9.0711,9.0739,9.0739,9.0739,9.0739,9.0703,9.039,9.0,9.0,9.0,9.0,9.0,9.0156,9.0351,9.0351,9.0547,9.0703,9.0703,9.0703,9.0703,9.0703,9.1172,9.164,9.164,9.2148,9.2617,9.2617,9.2617,9.2617,9.2617,9.2617,9.2695,9.2929,9.2969,9.3047,9.3281,9.332,9.3242,9.3008,9.3164,9.332,9.332,9.332,9.332,9.332,9.332,9.3203,9.2969,9.2969,9.2851,9.2617,9.2617,9.2617,9.2617,9.2617,9.2617,9.2617,9.1953,9.1523,9.1289,9.0655,9.0218,7.7023,7.7062,7.7101,7.7062,7.7062,7.7101,7.7101,7.7101,7.7101,7.7101,7.7101,7.7101,7.7101,7.7101,7.7101,7.7101,7.7101,7.7101,7.7101,7.7843,7.835,7.835,7.9131,7.999,0.0,8.0146,8.0341,8.2059,8.2215,8.2957,8.4636,8.4714,8.5137,8.6041,8.69,8.7759,8.8618,8.9477,8.9945,8.9945,8.9984,8.9984,9.0023,9.0882,9.1702,9.2522,9.2443,9.2443,9.2522,9.2522,9.2522,9.2528,9.2528,9.2528,9.2535,9.2535,9.1445,9.0,9.0,9.0,9.0,9.0,9.0586,9.125,9.125,9.1836,9.2539,9.2539,9.2539,9.2539,9.2539,9.2539,9.2578,9.2578,9.2578,9.2617,9.2617,9.2617,9.2617,9.2617,9.2617,9.2851,9.3711,9.3867,9.414,9.5,9.5117,9.4804,9.3984,9.4609,9.5117,9.5117,9.5117,9.5117,9.5117,9.5117,9.4765,9.3906,9.3867,9.3476,9.2617,9.2617,9.2617,9.2617,9.2617,9.2617,9.2617,9.2578,9.25,9.2343,9.2346,9.2141,7.7101,7.7101,7.7101,7.7101,7.7101,7.7101,7.7101,7.7101,7.7101,7.7101,7.7101,7.7101,7.7101,7.7101,7.7101,7.7101,7.7609,7.796,7.796,7.8702,7.9248,7.9248,8.0537,0.0,0.0,0.0,0.0,8.2996,8.3621,8.448,8.5612,8.6197,8.6939,8.7798,8.8657,8.9281,8.9555,9.0413,9.0843,9.0882,9.1389,9.1663,9.1663,9.1975,9.2248,9.2522,9.2522,9.2522,9.2522,9.2522,9.2522,9.2522,9.2561,9.26,9.2606,9.2585,9.2239,9.1736,9.1718,9.1719,9.1719,9.1719,9.1914,9.2148,9.2148,9.2383,9.2617,9.2617,9.2617,9.2617,9.2617,9.2617,9.2617,9.2617,9.2617,9.2617,9.2617,9.2617,9.2773,9.3359,9.3476,9.375,9.4609,9.4765,9.4844,9.5156,9.5195,9.5078,9.4804,9.5039,9.5195,9.5195,9.5195,9.5195,9.5195,9.5195,9.5078,9.4765,9.4765,9.4648,9.4336,9.4336,9.4062,9.3476,9.3476,9.3164,9.2617,9.2617,9.2539,9.2383,9.2411,9.2276,7.7101,7.7101,7.7101,7.7101,7.7101,7.7101,7.7101,7.7101,7.7101,7.7101,7.7101,7.7218,7.7492,7.757,7.7687,7.7999,7.8507,7.8858,7.8858,7.96,8.0263,8.0576,8.1864,8.2957,0.0,0.0,0.0,8.4401,8.5254,8.6119,8.6978,8.7876,8.8579,8.9164,9.0023,9.0452,9.0452,9.1311,9.1741,9.1741,9.2248,9.2482,9.2482,9.2482,9.2482,9.2482,9.2482,9.2482,9.2482,9.2482,9.2482,9.2482,9.2561,9.2561,9.2561,9.2561,9.2561,9.2567,9.2603,9.2615,9.2617,9.2617,9.2617,9.2617,9.2617,9.2617,9.2617,9.2617,9.2617,9.2617,9.2617,9.2617,9.2695,9.3008,9.3047,9.3164,9.3476,9.3515,9.3672,9.4258,9.4375,9.4648,9.5508,9.5898,9.6094,9.6094,9.6094,9.5976,9.5703,9.5937,9.6094,9.6094,9.6094,9.6094,9.6094,9.6094,9.5976,9.5664,9.5664,9.5508,9.5195,9.5195,9.4922,9.4375,9.4375,9.4101,9.3515,9.3515,9.3476,9.3398,9.3398,9.327,7.7101,7.7101,7.7101,7.7101,7.7101,7.7101,7.7101,7.7101,7.7101,7.7179,7.7179,7.7414,7.8311,7.8468,7.8741,7.9561,7.9756,7.9756,7.9756,8.0537,8.1435,0.0,0.0,0.0,0.0,0.0,0.0,8.6236,0.0,8.7837,8.8735,8.9594,9.0062,9.0062,9.0921,9.135,9.135,9.2131,9.2482,9.2482,9.2482,9.2482,9.2482,9.2482,9.2482,9.2482,9.2482,9.2482,9.2482,9.2561,9.2561,9.2561,9.26,9.2639,9.2639,9.2639,9.2639,9.2639,9.2717,9.2677,9.2617,9.2617,9.2617,9.2617,9.2617,9.2617,9.2617,9.2656,9.2656,9.2695,9.2734,9.2734,9.2929,9.3789,9.3984,9.4179,9.5039,9.5195,9.5195,9.5273,9.5312,9.5586,9.6406,9.7187,9.7695,9.7695,9.7695,9.7422,9.664,9.7226,9.7695,9.7695,9.7695,9.7695,9.7695,9.7695,9.7383,9.6601,9.6562,9.6172,9.5351,9.5312,9.5312,9.5273,9.5273,9.5234,9.5195,9.5195,9.5195,9.5195,9.5195,9.5117,7.7101,7.7101,7.7101,7.7101,7.7101,7.7101,7.7101,7.7101,7.7296,7.7921,7.8077,7.8311,7.9209,7.9366,7.9444,7.9678,8.0224,8.0654,8.0654,8.1942,0.0,8.3152,0.0,8.5612,8.6041,8.7251,0.0,0.0,8.8227,8.8735,8.9633,9.0492,9.096,9.096,9.178,9.217,9.217,9.2404,9.2482,9.2482,9.2482,9.2482,9.2482,9.2482,9.2482,9.2482,9.2482,9.2482,9.2561,9.3185,9.3458,9.3537,9.4161,9.4434,9.4434,9.4434,9.4434,9.4434,9.4473,9.3654,9.2617,9.2617,9.2617,9.2617,9.2617,9.2617,9.2734,9.3398,9.3554,9.3711,9.4375,9.4531,9.4609,9.4804,9.4883,9.4922,9.5156,9.5195,9.539,9.6054,9.664,9.7148,9.7344,9.7578,9.7695,9.7695,9.7695,9.7617,9.7422,9.7578,9.7695,9.7695,9.7695,9.7695,9.7695,9.7695,9.7617,9.7422,9.7383,9.7304,9.707,9.707,9.6797,9.6172,9.6172,9.5859,9.5195,9.5195,9.5195,9.5195,9.5195,9.5156,7.7101,7.7101,7.7101,7.7101,7.7101,7.7218,7.757,7.7687,7.7921,7.878,7.8975,7.9248,8.0107,8.0263,8.0381,8.0771,8.1239,8.1708,8.2059,8.2918,8.3777,8.4558,8.5495,0.0,8.7173,8.8149,8.9008,0.0,8.9828,9.0062,9.0531,9.135,9.1819,9.1819,9.2248,9.2482,9.2482,9.2482,9.2482,9.2482,9.2482,9.2482,9.2522,9.2912,9.3068,9.3107,0.0,9.3654,9.3693,9.4161,9.4356,9.4434,9.4903,9.5098,9.5098,9.5098,9.5098,9.5098,9.5098,9.4499,9.3703,9.3749,9.375,9.375,9.375,9.375,9.3828,9.4336,9.4453,9.457,9.5078,9.5195,9.5312,9.5664,9.5781,9.5859,9.6211,9.6289,9.6445,9.6914,9.7383,9.7695,9.7695,9.7695,9.7695,9.7695,9.7695,9.7695,9.7695,9.7695,9.7695,9.7695,9.7695,9.7695,9.7695,9.7695,9.7695,9.7695,9.7695,9.7695,9.7695,9.7695,9.75,9.7031,9.7031,9.6797,9.6289,9.6289,9.6289,9.6289,9.6289,9.6289,7.7101,7.7101,7.7101,7.7101,7.7101,7.7335,7.8194,7.839,7.8663,7.9678,7.9873,8.0146,8.1005,8.1161,8.1435,8.2176,8.2371,8.2684,8.3386,8.3699,8.4401,8.5924,8.6314,8.7056,8.854,8.8891,8.9672,9.1194,9.1389,9.1467,9.1467,9.2131,9.2482,9.2482,9.2482,9.2482,9.2482,9.2482,9.2482,9.2482,9.26,9.2678,9.2717,9.3576,9.3966,9.4005,0.0,0.0,9.5098,9.5215,9.5254,9.5293,9.541,9.5449,9.5449,9.5449,9.5449,9.5449,9.5449,9.5449,9.5417,9.5228,9.5195,9.5195,9.5195,9.5195,9.5234,9.5312,9.5351,9.539,9.5508,9.5547,9.5703,9.6484,9.664,9.6836,9.7539,9.7695,9.7695,9.7695,9.7695,9.7695,9.7695,9.7695,9.7695,9.7695,9.7812,9.7851,9.7851,9.7773,9.7695,9.7695,9.7695,9.7695,9.7695,9.7695,9.7695,9.7695,9.7695,9.7695,9.7695,9.7695,9.7695,9.7695,9.7695,9.7695,9.7695,9.7695,9.7695,9.7695,9.7695,9.7695,7.7101,7.7101,7.7101,7.7101,7.7101,7.7335,7.8194,7.839,7.8858,8.0459,8.0771,8.1044,8.1903,8.2059,8.2137,8.2293,8.2879,8.3347,8.3465,8.4753,8.5768,8.6041,8.7368,8.8383,8.8657,8.9984,0.0,0.0,0.0,9.2287,9.2287,9.2404,9.2482,9.2482,9.2482,9.2482,9.2482,9.2482,9.2482,9.2522,9.3224,9.3576,9.3615,9.4473,9.4864,9.4864,0.0,0.0,9.5176,9.5879,9.6152,9.6269,9.6972,9.7245,9.7245,9.7245,9.7245,9.7245,9.7245,9.7245,9.7011,9.558,9.5106,9.5117,9.5117,9.5156,9.5351,9.6015,9.6211,9.6445,9.7109,9.7265,9.7304,9.7461,9.75,9.7539,9.7656,9.7695,9.7695,9.7695,9.7695,9.7695,9.7695,9.7695,9.7695,9.7695,9.832,9.8789,9.8789,9.8164,9.7695,9.7695,9.7695,9.7695,9.7695,9.7695,9.7695,9.7695,9.7695,9.7695,9.7695,9.7695,9.7695,9.7695,9.7695,9.7695,9.7695,9.7695,9.7695,9.7695,9.7695,9.7695,7.7101,7.7101,7.7101,7.7101,7.7453,7.7999,7.8897,7.9444,8.0107,8.1396,8.1669,8.1786,8.2215,8.2293,8.245,8.2879,8.323,8.3816,8.4714,8.5573,8.6431,8.7368,8.8188,8.9047,8.9945,9.0804,9.1467,9.1897,0.0,9.2482,9.2482,9.2482,9.2482,9.2482,9.2482,9.2482,9.2482,9.2951,9.3185,9.3185,9.4044,9.4473,9.4512,9.5371,9.5762,9.5801,9.6269,0.0,9.6503,9.6894,9.7089,9.7128,9.7558,9.7714,9.7714,9.7714,9.7714,9.7714,9.7714,9.7714,9.7558,9.6738,9.6445,9.6469,9.6469,9.6469,9.659,9.6952,9.7109,9.7226,9.7617,9.7695,9.7695,9.7695,9.7695,9.7695,9.7695,9.7695,9.7695,9.7695,9.7695,9.7695,9.7695,9.8086,9.8398,9.8398,9.9101,9.9687,9.9687,9.9297,9.9062,9.9062,9.9062,9.9062,9.9062,9.9062,9.9062,9.9062,9.9062,9.9062,9.9062,9.8633,9.8398,9.8398,9.7929,9.7695,9.7695,9.7695,9.7695,9.7695,9.7695,9.7695,7.7101,7.7101,7.714,7.7335,7.7882,7.8663,7.9756,8.0498,8.1239,8.2137,8.2293,8.2293,8.2293,8.245,8.2762,8.3386,8.3816,8.4558,8.5924,8.6275,8.6978,8.8501,8.8852,8.9594,9.1155,9.1467,0.0,9.2443,9.2482,0.0,9.2482,9.2482,9.2482,9.2482,9.2678,9.2795,9.2795,9.3654,9.4083,9.4083,9.4942,9.5371,9.541,9.6269,9.6699,9.6738,9.7401,0.0,0.0,9.7714,9.7714,9.7714,9.7714,9.7714,9.7714,9.7714,9.7714,9.7714,9.7714,9.7714,9.7714,9.7714,9.7714,9.7714,9.7714,9.7714,9.7689,9.7687,9.7693,9.7693,9.7695,9.7695,9.7695,9.7695,9.7695,9.7695,9.7695,9.7695,9.7773,9.7929,9.7969,9.8047,9.8203,9.8828,9.9297,9.9297,10.0,10.0586,10.0586,10.0703,10.0898,10.0898,10.0508,10.0312,10.0312,10.0312,10.0312,10.0312,10.0312,10.0312,10.0312,9.9648,9.9297,9.9297,9.8594,9.8242,9.8242,9.8242,9.8242,9.8242,9.8242,9.8242,7.7101,7.7101,7.7296,7.8077,7.835,7.8858,8.0498,8.0927,8.1239,8.2137,8.2293,8.2293,8.2293,8.2918,8.3426,8.3504,8.4831,8.5924,8.608,8.6783,8.7642,8.8579,8.9398,9.0257,9.1194,9.1975,9.2404,9.2482,9.2482,0.0,9.2482,9.2482,9.2482,9.2482,9.3263,9.3693,9.3693,9.4552,9.4981,9.4981,9.5879,9.6269,9.6308,9.7167,9.7597,9.7597,0.0,0.0,0.0,9.7714,9.7714,9.7714,9.7714,9.7714,9.7714,9.7714,9.7714,9.7714,9.7714,9.7714,9.7714,9.7714,9.7714,9.7714,9.7714,9.7714,9.7714,9.7682,9.7689,9.7701,9.7693,9.7695,9.7695,9.7695,9.7695,9.7695,9.7695,9.7695,9.7929,9.8711,9.8867,9.914,9.9922,10.0117,10.0195,10.0195,10.0898,10.1484,10.1484,10.2187,10.2695,10.2695,10.1211,10.0312,10.0312,10.0312,10.0312,10.0312,10.0312,10.0312,10.0312,10.0195,10.0195,10.0195,10.0117,10.0117,10.0117,10.0117,10.0117,10.0117,10.0117,10.0117,7.7101,7.7492,7.796,7.8311,7.917,8.0146,8.0849,8.1396,8.1864,8.2215,8.2293,8.245,8.2918,8.3269,8.3855,8.487,8.5651,8.6275,8.6822,8.7642,8.8501,8.9398,9.0257,9.1116,9.1936,9.2326,9.2482,9.2482,9.2482,0.0,9.2482,9.2482,9.2756,9.3263,9.3615,9.4044,9.4591,9.5449,9.5879,9.5879,9.6777,9.7167,9.7206,9.7558,9.7714,9.7714,9.7714,0.0,0.0,9.7714,9.7714,9.7714,9.7714,9.7714,9.7714,9.7714,9.7714,9.7714,9.7714,9.7714,9.7714,9.7714,9.7714,9.7714,9.7714,9.7714,9.7714,9.7714,9.7714,9.7682,9.7706,9.7689,9.7695,9.7695,9.7695,9.7851,9.8359,9.8476,9.875,9.9609,9.9765,9.9883,10.0195,10.0703,10.1094,10.1094,10.1797,10.2383,10.2383,10.2695,10.289,10.289,10.2304,10.1914,10.1914,10.1914,10.1914,10.1914,10.1914,10.1914,10.1914,10.1406,10.1094,10.1094,10.0586,10.0312,10.0312,10.0312,10.0312,10.0312,10.0312,10.0312,7.7414,7.7921,7.8507,7.9053,8.0107,8.1083,8.1317,8.1864,8.2293,8.2293,8.2489,8.284,8.3386,8.3933,8.4675,8.5885,8.6314,8.6783,8.7642,8.8305,8.9125,9.0257,9.0921,9.1624,9.2404,9.2482,9.2482,9.2482,9.2482,0.0,9.2873,9.2873,9.3185,9.3771,9.4317,9.4864,9.5488,9.6347,9.6777,9.6777,9.7401,9.7714,9.7714,9.7714,9.7714,9.7714,0.0,0.0,0.0,9.7714,9.7714,9.7714,9.7714,9.7714,9.7714,9.7714,9.7714,9.7714,9.7714,9.7714,9.7714,9.7714,9.7714,9.7714,9.7714,9.7714,9.7714,9.7714,9.7714,9.7714,9.7714,9.7875,9.8086,9.8086,9.8281,9.8633,9.9258,9.9375,9.9648,10.0508,10.0703,10.0781,10.1015,10.1601,10.1992,10.1992,10.25,10.289,10.289,10.289,10.289,10.289,10.289,10.289,10.289,10.289,10.289,10.289,10.289,10.289,10.289,10.2304,10.1992,10.1992,10.1406,10.1094,10.1094,10.1094,10.1094,10.1094,10.1094,10.1094,7.8155,7.839,7.8819,8.0537,8.1005,8.1239,8.2098,8.2293,8.2293,8.2293,8.2918,8.3504,8.3504,8.4909,8.608,8.608,8.6822,8.7681,8.8579,8.8696,8.9359,9.1077,9.1272,9.1624,9.2404,9.2482,9.2482,9.2482,9.2482,0.0,9.3732,9.3771,9.3771,9.381,9.5488,9.6386,9.6386,9.7245,9.7675,9.7675,9.7714,9.7714,9.7714,9.7714,9.7714,0.0,0.0,0.0,0.0,9.7714,9.7714,9.7714,9.7714,9.7714,9.7714,9.7714,9.7714,9.7714,9.7714,9.7714,9.7714,9.7714,9.7714,9.7714,9.7714,9.7714,9.7714,9.7714,9.7714,9.7714,9.7714,9.8344,9.8984,9.8984,9.9648,10.0312,10.0312,10.0312,10.0508,10.1406,10.1601,10.1914,10.2695,10.289,10.289,10.289,10.289,10.289,10.289,10.289,10.289,10.289,10.289,10.289,10.289,10.289,10.289,10.289,10.289,10.289,10.289,10.289,10.289,10.289,10.289,10.289,10.289,10.289,10.289,10.289,10.289,10.289,7.8311,7.9287,8.0302,8.0849,8.1435,8.1942,8.2254,8.2293,8.245,8.2996,8.3308,8.3855,8.5065,8.5729,8.6314,8.69,8.7212,8.772,8.8579,8.9203,9.0023,9.1155,9.178,9.2209,9.2482,9.2482,9.2482,9.2482,9.3068,0.0,9.3771,9.4942,9.5567,9.5567,9.6113,9.6699,9.7284,9.7558,9.7714,9.7714,9.7714,9.7714,9.7714,9.7714,0.0,0.0,0.0,0.0,0.0,9.7714,9.7714,9.7714,9.7714,9.7714,9.7714,9.7714,9.7714,9.7714,9.7714,9.7714,9.7792,9.8377,9.8572,9.869,9.9314,9.8651,9.7831,9.8416,9.8572,9.8743,9.9324,9.9686,9.9883,9.9883,10.0117,10.0508,10.1094,10.1211,10.1406,10.2304,10.25,10.2617,10.289,10.289,10.289,10.289,10.289,10.289,10.289,10.289,10.289,10.289,10.289,10.289,10.289,10.289,10.289,10.289,10.289,10.289,10.289,10.289,10.289,10.289,10.289,10.289,10.289,10.289,10.289,10.289,10.289,10.289,7.9287,8.0185,8.1083,8.1396,8.1903,8.2293,8.2293,8.2293,8.2528,8.3347,8.3777,8.4401,8.5846,8.6353,8.6783,8.7329,8.7407,8.7837,8.9008,8.9672,9.0452,9.1624,9.2209,9.2482,9.2482,9.2482,9.2482,9.2482,0.0,0.0,9.4278,9.5645,9.6542,9.6894,9.6894,9.7167,9.7675,9.7714,9.7714,9.7714,9.7714,9.7714,9.7714,9.7714,0.0,0.0,0.0,0.0,0.0,9.7714,9.7714,9.7714,9.7714,9.7714,9.7714,9.7714,9.7909,9.8182,9.8182,9.8416,9.8768,9.9314,9.947,9.9588,10.0095,9.9548,9.8807,9.9353,9.947,9.9641,10.0219,10.0505,10.0781,10.0781,10.1015,10.1406,10.1992,10.2109,10.2304,10.2812,10.289,10.289,10.289,10.289,10.289,10.289,10.289,10.289,10.289,10.289,10.289,10.289,10.289,10.289,10.289,10.289,10.289,10.289,10.289,10.289,10.289,10.289,10.289,10.289,10.289,10.289,10.289,10.289,10.289,10.289,10.289,10.289,0.0,8.1083,8.1278,8.2098,8.2293,8.2293,8.2293,8.2293,0.0,8.3426,8.4245,8.5104,8.6002,8.6861,8.7407,8.7407,8.7446,8.8071,8.975,9.0101,9.0765,9.2326,9.2482,9.2482,9.2482,9.2482,9.2522,9.26,0.0,0.0,9.5137,9.6035,9.6855,9.7675,9.7714,9.7714,9.7714,9.7714,9.7714,9.7714,9.7714,9.7714,9.7714,9.7714,0.0,0.0,0.0,0.0,0.0,9.7714,9.7714,9.7714,9.7714,9.7753,9.7792,9.7792,9.8338,9.908,9.908,9.9627,10.029,10.0407,10.0407,10.0485,10.0485,10.0407,10.029,10.0407,10.0407,10.0407,10.0485,10.1117,10.1719,10.1719,10.2304,10.289,10.289,10.289,10.289,10.289,10.289,10.289,10.289,10.289,10.289,10.289,10.289,10.289,10.289,10.289,10.289,10.289,10.289,10.289,10.289,10.289,10.289,10.289,10.289,10.289,10.289,10.289,10.289,10.289,10.289,10.289,10.289,10.289,10.289,10.289,10.289,10.289,8.1591,0.0,8.2059,8.2254,8.2293,8.2293,0.0,8.2293,8.2723,8.4206,8.4675,8.526,8.6822,8.7251,8.7407,8.7407,8.7954,8.8774,8.9867,9.1116,9.2053,9.2443,9.2482,9.2482,9.2482,9.2482,9.2795,9.3419,0.0,9.5176,9.6035,9.6933,9.7479,9.7675,9.7714,9.7714,9.7714,9.7714,9.7714,9.7714,9.7714,9.7714,9.7714,9.7714,0.0,0.0,0.0,0.0,9.7714,9.7714,9.7714,9.7714,9.7714,9.8104,9.869,9.869,9.9236,9.9978,9.9978,10.0095,10.0407,10.0993,10.1696,10.2203,10.2203,10.1305,10.0407,10.0993,10.1188,10.1383,10.2008,10.2406,10.2617,10.2617,10.2812,10.289,10.289,10.289,10.289,10.289,10.289,10.289,10.289,10.289,10.289,10.289,10.289,10.289,10.289,10.289,10.289,10.289,10.289,10.289,10.289,10.289,10.289,10.289,10.289,10.289,10.289,10.289,10.289,10.289,10.289,10.289,10.289,10.289,10.289,10.289,10.289,10.289,8.1825,8.2293,8.2293,8.2293,8.2293,8.2293,8.2293,8.2606,8.323,8.4519,8.5104,8.5807,8.7134,8.7407,8.7407,8.7407,8.8149,8.9125,9.0413,9.1702,9.2482,9.2482,9.2482,9.2482,0.0,9.2482,9.2873,9.3732,0.0,9.5488,9.6347,9.7245,9.7714,9.7714,9.7714,9.7714,9.7714,9.7714,9.7714,9.7714,9.7714,9.7714,9.7714,9.7714,9.7714,0.0,0.0,0.0,9.7714,9.7714,9.7948,9.8299,9.8299,9.8846,9.9588,9.9588,10.0095,10.0915,10.0915,10.111,10.15,10.2008,10.2398,10.2789,10.2789,10.2203,10.15,10.2008,10.2086,10.2203,10.2711,10.2816,10.2882,10.289,10.289,10.289,10.289,10.289,10.289,10.289,10.289,10.289,10.289,10.289,10.289,10.289,10.289,10.289,10.289,10.289,10.289,10.289,10.289,10.289,10.289,10.289,10.289,10.289,10.289,10.289,10.289,10.289,10.289,10.289,10.289,10.289,10.289,10.289,10.289,10.289,10.289,10.289,8.1825,8.2293,8.2293,8.2293,8.2293,8.2293,8.2293,8.2918,8.3738,8.4636,8.5495,8.6353,8.7251,8.7407,8.7407,8.7407,8.8227,8.9516,9.1233,9.2053,9.2482,9.2482,9.2482,9.2482,9.2482,9.2482,9.2912,0.0,0.0,9.5527,9.6542,9.7284,9.7714,9.7714,9.7714,9.7714,9.7714,9.7714,9.7714,9.7714,9.7714,9.7714,9.7714,9.7714,9.7714,0.0,0.0,0.0,9.7714,9.7714,9.8221,9.9002,9.9002,9.9627,10.0485,10.0485,10.0993,10.1696,10.1696,10.2203,10.2789,10.2789,10.2789,10.2789,10.2789,10.2789,10.2789,10.2789,10.2789,10.2789,10.2789,10.2789,10.2803,10.2884,10.289,10.289,10.289,10.289,10.289,10.289,10.289,10.289,10.289,10.289,10.289,10.289,10.289,10.289,10.289,10.289,10.289,10.289,10.289,10.289,10.289,10.289,10.289,10.289,10.289,10.289,10.289,10.289,10.289,10.289,10.289,10.289,10.289,10.289,10.289,10.289,10.3008,10.3086,8.1825,8.2293,8.2293,8.2293,8.2293,8.2293,8.2293,8.2918,8.3738,8.4636,8.5495,8.6353,8.7251,8.7407,8.7407,8.7407,8.8735,9.0374,9.2092,9.2404,9.2482,9.2482,9.2482,9.2482,9.2482,9.2482,9.3185,0.0,0.0,9.5801,9.7401,9.7636,9.7714,9.7714,9.7714,9.7714,9.7714,9.7714,9.7714,9.7714,9.7714,9.7714,9.7714,9.7714,9.7714,0.0,0.0,9.7714,9.7714,9.7714,9.8221,9.9002,9.9002,9.9939,10.1305,10.1305,10.1891,10.2593,10.2593,10.2711,10.2789,10.2789,10.2789,10.2789,10.2789,10.2789,10.2789,10.2789,10.2789,10.2789,10.2789,10.2789,10.2789,10.2803,10.2917,10.289,10.289,10.289,10.289,10.289,10.289,10.289,10.289,10.289,10.289,10.289,10.289,10.289,10.289,10.289,10.289,10.289,10.289,10.289,10.289,10.289,10.289,10.289,10.289,10.289,10.289,10.289,10.289,10.289,10.289,10.289,10.289,10.289,10.289,10.289,10.3711,10.3984,8.1825,8.2293,8.2293,8.2293,8.2293,8.2293,8.2293,8.2918,8.3738,8.4636,8.5495,8.6353,8.7251,8.7407,8.772,8.8657,8.9867,9.1116,9.2326,9.2482,9.2482,0.0,0.0,9.2482,9.2482,9.2912,9.3732,0.0,0.0,0.0,9.7636,9.7714,9.7714,9.7714,9.7714,9.7714,9.7714,9.7714,9.7714,9.7714,9.7714,9.7714,9.7714,9.7714,9.7714,9.7714,0.0,9.7714,9.7753,9.8221,9.8924,9.9744,10.0212,10.111,10.2203,10.2203,10.2515,10.2789,10.2789,10.2789,10.2789,10.2789,10.2789,10.2789,10.2789,10.2789,10.2789,10.2789,10.2789,10.2789,10.2789,10.2789,10.2789,10.2789,10.2816,10.2917,10.289,10.289,10.289,10.289,10.289,10.289,10.289,10.289,10.289,10.289,10.289,10.289,10.289,10.289,10.289,10.289,10.289,10.289,10.289,10.289,10.289,10.289,10.289,10.289,10.289,10.289,10.289,10.289,10.289,10.3086,10.3594,10.3594,10.3789,10.4297,10.4687,10.4883,8.1864,8.2293,8.2293,8.2293,8.2293,8.2293,8.2293,8.3074,8.3972,8.4675,8.5651,8.6627,8.729,8.7564,8.8266,9.0023,9.0843,9.1585,9.2404,9.2482,9.2482,0.0,0.0,9.2482,9.2482,9.3302,0.0,0.0,0.0,0.0,9.7636,9.7714,9.7714,9.7714,9.7714,9.7714,9.7714,9.7714,9.7714,9.7714,9.7714,9.7714,9.7714,9.7714,9.7714,9.7714,9.7714,9.7831,9.8065,9.8729,9.9627,10.0603,10.1305,10.2008,10.2789,10.2789,10.2789,10.2789,10.2789,10.2789,10.2789,10.2789,10.2789,10.2789,10.2789,10.2789,10.2789,10.2789,10.2789,10.2789,10.2789,10.2789,10.2789,10.2789,10.2789,10.2803,10.2882,10.2889,10.289,10.289,10.289,10.289,10.289,10.289,10.289,10.289,10.289,10.289,10.289,10.289,10.289,10.289,10.289,10.289,10.289,10.289,10.289,10.289,10.289,10.289,10.289,10.289,10.3008,10.3203,10.3203,10.3594,10.4492,10.4492,10.4804,10.5508,10.5703,10.5781,8.2059,8.2293,8.2293,8.2293,8.2293,8.2293,8.2293,8.3543,0.0,8.4792,0.0,0.0,8.7407,8.8071,8.9164,9.0921,9.1272,9.1585,9.2404,0.0,9.2482,9.2482,0.0,9.2482,9.2482,9.3302,0.0,0.0,0.0,0.0,9.7636,9.7714,9.7714,9.7714,9.7714,9.7714,9.7714,9.7714,9.7714,9.7714,9.7714,9.7714,9.7714,9.7714,9.7714,9.7714,9.7714,9.8143,9.8924,9.8963,9.9939,10.1383,10.15,10.2008,10.2789,10.2789,10.2789,10.2789,10.2789,10.2789,10.2789,10.2789,10.2789,10.2789,10.2789,10.2789,10.2789,10.2789,10.2789,10.2789,10.2789,10.2789,10.2789,10.2789,10.2789,10.2789,10.2796,10.2917,10.289,10.289,10.289,10.289,10.289,10.289,10.289,10.289,10.289,10.289,10.289,10.289,10.289,10.289,10.289,10.289,10.289,10.289,10.289,10.289,10.289,10.289,10.289,10.289,10.3281,10.4101,10.4101,10.4492,10.539,10.539,10.539,10.5508,10.6289,10.6601,8.2059,8.2293,8.2293,8.2293,8.2293,0.0,0.0,8.3191,8.4167,8.4675,8.5768,0.0,0.0,8.893,8.9906,9.1116,9.1702,9.2131,9.2443,9.2482,9.2482,9.2482,9.2482,9.2482,0.0,0.0,0.0,0.0,0.0,0.0,9.7675,9.7714,9.7714,9.7714,9.7714,9.7714,9.7714,9.7714,9.7714,9.7714,9.7714,9.7714,9.7714,9.7714,9.7714,9.7714,9.7714,9.8182,9.9041,9.9588,10.0485,10.1618,10.2086,10.2515,10.2789,10.2789,10.2789,10.2789,10.2789,10.2789,10.2789,10.2789,10.2789,10.2789,10.2789,10.2789,10.2789,10.2789,10.2789,10.2789,10.2789,10.2789,10.2789,10.2789,10.2789,10.2789,10.2789,10.281,10.2905,10.2905,10.2884,10.289,10.289,10.289,10.289,10.289,10.289,10.289,10.289,10.289,10.289,10.289,10.289,10.289,10.289,10.289,10.289,10.289,10.289,10.289,10.289,10.3398,10.3906,10.4219,10.4687,10.539,10.6211,10.6211,10.6484,10.7109,10.7383,10.75,8.2137,8.2293,8.2293,8.2293,0.0,0.0,8.2606,8.3308,8.4089,8.4675,8.5924,0.0,8.8852,0.0,0.0,0.0,9.2131,9.2482,9.2482,9.2482,9.2482,9.2482,9.2482,9.26,9.2873,0.0,0.0,0.0,0.0,0.0,0.0,9.7714,9.7714,9.7714,9.7714,9.7714,9.7714,9.7714,9.7714,9.7714,9.7714,9.7714,9.7714,9.7714,9.7714,9.7714,9.7714,9.8338,9.947,10.0095,10.0915,10.2008,10.2593,10.2789,10.2789,10.2789,10.2789,10.2789,10.2789,10.2789,10.2789,10.2789,10.2789,10.2789,10.2789,10.2789,10.2789,10.2789,10.2789,10.2789,10.2789,10.2789,10.2789,10.2789,10.2789,10.2789,10.2789,10.2789,10.2789,10.2906,10.2905,10.2886,10.289,10.289,10.289,10.289,10.289,10.289,10.289,10.289,10.289,10.289,10.289,10.289,10.289,10.289,10.289,10.289,10.289,10.3008,10.3281,10.3906,10.4414,10.5,10.5586,10.6289,10.7109,10.7109,10.7383,10.8008,10.8008,10.8008,8.2293,8.2293,8.2293,8.2293,8.2293,0.0,8.3308,8.4167,8.4792,8.4831,8.69,8.8969,8.9867,9.0726,0.0,9.2365,9.2482,9.2482,9.2482,9.2482,9.2482,9.2482,9.2482,9.2834,9.3732,9.4591,0.0,0.0,0.0,0.0,0.0,9.7714,9.7714,9.7714,9.7714,9.7714,9.7714,9.7714,9.7714,9.7714,9.7714,9.7714,9.7714,9.7714,9.7714,9.7714,9.7714,9.869,10.029,10.029,10.1305,10.2789,10.2789,10.2789,10.2789,10.2789,10.2789,10.2789,10.2789,10.2789,10.2789,10.2789,10.2789,10.2789,10.2789,10.2789,10.2789,10.2789,10.2789,10.2789,10.2789,10.2789,10.2789,10.2789,10.2789,10.2789,10.2789,10.2789,10.2789,10.2906,10.2906,10.2894,10.2889,10.289,10.289,10.289,10.289,10.289,10.289,10.289,10.289,10.289,10.289,10.289,10.289,10.289,10.289,10.289,10.289,10.3281,10.4219,10.4219,10.5,10.6719,10.6719,10.7109,10.8008,10.8008,10.8008,10.8008,10.8008,10.8008,8.2293,8.2293,8.2293,8.2293,8.2293,8.2528,8.3308,8.4167,0.0,0.0,8.8149,8.9164,9.0648,0.0,0.0,0.0,0.0,9.2482,9.2482,9.2482,9.2482,9.2482,9.2482,9.2834,9.3732,9.4591,0.0,0.0,0.0,0.0,0.0,9.7714,9.7714,9.7714,9.7714,9.7714,9.7714,9.7714,9.7714,9.7714,9.7714,9.7714,9.7714,9.7714,9.7714,9.7714,9.8338,9.9275,10.0407,10.1618,10.2398,10.2789,10.2789,10.2789,10.2789,10.2789,10.2789,10.2789,10.2789,10.2789,10.2789,10.2789,10.2789,10.2789,10.2789,10.2789,10.2789,10.2789,10.2789,10.2789,10.2789,10.2789,10.2789,10.2789,10.2789,10.2789,10.2789,10.2789,10.2789,10.2789,10.2905,10.2886,10.289,10.289,10.289,10.289,10.289,10.289,10.289,10.289,10.289,10.289,10.289,10.289,10.289,10.289,10.289,10.289,10.289,10.3281,10.4219,10.4804,10.5586,10.6719,10.7304,10.7695,10.8008,10.8008,10.8008,10.8008,10.8008,10.8008,8.2293,8.2293,8.2293,8.2293,8.2528,8.3074,8.4245,8.4948,8.5963,0.0,8.8969,8.9633,9.1038,9.1546,0.0,9.2404,9.2482,9.2482,9.2482,9.2482,9.2482,9.2482,9.2795,9.3341,9.4239,9.5098,0.0,0.0,0.0,0.0,0.0,9.7714,9.7714,9.7714,9.7714,9.7714,9.7714,9.7714,9.7714,9.7714,9.7714,9.7714,9.7714,9.7714,9.7714,9.7753,9.9002,10.0017,10.0915,10.2203,10.2789,10.2789,10.2789,10.2789,10.2789,10.2789,10.2789,10.2789,10.2789,10.2789,10.2789,10.2789,10.2789,10.2789,10.2789,10.2789,10.2789,10.2789,10.2789,10.2789,10.2789,10.2789,10.2789,10.2789,10.2789,10.2789,10.2789,10.2789,10.2789,10.2789,10.2917,10.289,10.289,10.289,10.289,10.289,10.289,10.289,10.289,10.289,10.289,10.289,10.289,10.289,10.289,10.289,10.289,10.289,10.289,10.3398,10.4687,10.5195,10.6015,10.7187,10.7695,10.8008,10.8008,10.8008,10.8008,10.8008,10.8008,10.8008,8.2293,8.2287,8.2287,8.2293,8.2957,8.405,8.5729,8.6236,8.6822,8.8461,0.0,9.0374,9.1233,9.2007,9.2475,9.2475,9.2475,9.2475,9.2475,9.2482,9.2482,9.2482,9.3263,9.4122,9.502,9.5879,0.0,0.0,0.0,0.0,0.0,9.7714,9.7714,9.7714,9.7714,9.7714,9.7714,9.7714,9.7714,0.0,9.7714,9.7714,9.7714,9.7714,9.7792,9.8026,9.9627,10.0798,10.1696,10.2515,10.2789,10.2789,10.2789,10.2789,10.2789,10.2789,10.2789,10.2789,10.2789,10.2789,10.2789,10.2789,10.2789,10.2789,10.2789,10.2789,10.2789,10.2789,10.2789,10.2789,10.2789,10.2789,10.2789,10.2789,10.2789,10.2789,10.2789,10.2789,10.2789,10.2906,10.2917,10.289,10.289,10.289,10.289,10.289,10.289,10.289,10.289,10.289,10.289,10.289,10.289,10.289,10.289,10.289,10.289,10.289,10.289,10.3594,10.5312,10.5508,10.6289,10.8008,10.8008,10.8008,10.8008,10.8008,10.8008,10.8008,10.8008,10.8008,8.228,8.2171,8.2094,8.228,8.3426,8.4792,8.5846,8.7173,8.8422,8.9516,9.0413,9.1272,9.2092,9.2266,9.2249,9.2249,9.2249,9.2249,9.2249,9.2403,9.2482,9.2482,9.3263,9.4122,9.502,9.5879,0.0,0.0,0.0,0.0,9.7714,9.7714,9.7714,9.7714,9.7714,9.7714,9.7714,9.7714,9.7714,0.0,9.7714,9.7714,9.7714,9.7714,9.8455,9.9744,10.0095,10.111,10.2515,10.2711,10.2789,10.2789,10.2789,10.2789,10.2789,10.2789,10.2789,10.2789,10.2789,10.2789,10.2789,10.2789,10.2789,10.2789,10.2789,10.2789,10.2789,10.2789,10.2789,10.2789,10.2789,10.2789,10.2789,10.2789,10.2789,10.2789,10.2789,10.2789,10.2789,10.2789,10.2917,10.289,10.289,10.289,10.289,10.289,10.289,10.289,10.289,10.289,10.289,10.289,10.289,10.289,10.289,10.289,10.289,10.289,10.289,10.3398,10.4414,10.5117,10.6289,10.8008,10.8008,10.8008,10.8008,10.8008,10.8008,10.8008,10.8008,10.8008,8.228,8.2226,8.2357,8.3256,8.4167,8.509,8.6297,8.7887,8.9242,8.9612,9.0429,9.1348,9.2068,9.2137,9.2104,9.2182,9.2197,9.2224,9.2323,9.2342,9.2365,9.2365,9.3497,9.4473,9.4903,9.623,9.7206,0.0,0.0,9.7714,9.7714,9.7714,9.7714,9.7714,9.7714,9.7714,9.7714,9.7714,9.7714,9.7714,9.7714,9.7714,9.7714,9.7714,9.8651,10.029,10.029,10.1305,10.2789,10.2789,10.2789,10.2789,10.2789,10.2789,10.2789,10.2789,10.2789,10.2789,10.2789,10.2789,10.2789,10.2789,10.2789,10.2789,10.2789,10.2789,10.2789,10.2789,10.2789,10.2789,10.2789,10.2789,10.2789,10.2789,10.2789,10.2789,10.2789,10.2789,10.2789,10.2789,10.2816,10.2882,10.289,10.289,10.289,10.289,10.289,10.289,10.289,10.289,10.289,10.289,10.289,10.289,10.289,10.289,10.289,10.289,10.289,10.3281,10.4219,10.4609,10.5703,10.7304,10.7812,10.8008,10.8008,10.8008,10.8008,10.8008,10.8008,10.8008,8.2287,8.2411,8.2879,8.4441,8.4909,8.5434,8.6962,8.8495,8.9567,8.9507,9.0322,9.1248,9.1781,9.1915,9.1938,9.2137,9.2152,9.221,9.2364,9.2241,9.2209,9.2326,9.3759,9.4792,9.4973,9.6582,9.7636,0.0,0.0,9.7714,9.7714,9.7714,9.7714,9.7714,9.7714,9.7714,9.7714,9.7714,9.7714,9.7714,9.7714,9.7714,9.7714,9.787,9.8807,10.029,10.029,10.1305,10.2789,10.2789,10.2789,10.2789,10.2789,10.2789,10.2789,10.2789,10.2789,10.2789,10.2789,10.2789,10.2789,10.2789,10.2789,10.2789,10.2789,10.2789,10.2789,10.2789,10.2789,10.2789,10.2789,10.2789,10.2789,10.2789,10.2789,10.2789,10.2789,10.2789,10.2789,10.2789,10.2789,10.281,10.2889,10.289,10.289,10.289,10.289,10.289,10.289,10.289,10.289,10.289,10.289,10.289,10.289,10.289,10.289,10.289,10.289,10.3203,10.3906,10.4101,10.4883,10.6211,10.7304,10.7812,10.8008,10.8008,10.8008,10.8008,10.8008,10.8008,8.2234,8.2801,8.3582,8.4558,8.5377,8.6332,8.7858,8.8948,8.9691,9.0016,9.0966,9.1781,9.1877,9.1915,9.1915,9.1957,9.1957,9.1937,9.1981,9.1944,9.2209,9.2912,9.3858,9.4821,9.5729,9.6777,9.744,9.7675,9.7714,9.7714,9.7714,9.7714,9.7714,9.7714,9.7714,9.7714,9.7714,9.7714,9.7714,9.7714,9.7714,9.7714,9.7714,9.8494,9.9353,10.029,10.029,10.1305,10.2789,10.2789,10.2789,10.2789,10.2789,10.2789,10.2789,10.2789,10.2789,10.2789,10.2789,10.2789,10.2789,10.2789,10.2789,10.2789,10.2789,10.2789,10.2789,10.2789,10.2789,10.2789,10.2789,10.2789,10.2789,10.2789,10.2789,10.2789,10.2789,10.2789,10.2789,10.2789,10.2789,10.2888,10.2889,10.289,10.289,10.289,10.289,10.289,10.289,10.289,10.289,10.289,10.289,10.289,10.289,10.289,10.289,10.289,10.289,10.3008,10.3086,10.3789,10.4297,10.4492,10.6093,10.7187,10.8008,10.8008,10.8008,10.8008,10.8008,10.8008,8.2287,8.2879,8.3692,8.4454,8.5379,8.6424,8.7739,8.8731,8.9546,8.9948,9.0836,9.1504,9.1504,9.1604,9.1669,9.1669,9.1789,9.1915,9.1894,9.178,9.1987,9.2843,9.3724,9.4569,9.5544,9.655,9.7167,9.7284,9.7401,9.7479,9.7479,9.7636,9.7714,9.7714,9.7714,9.7714,9.7714,9.7714,9.7714,9.7714,9.7714,9.7714,9.7714,9.8612,9.947,10.029,10.0798,10.1696,10.2789,10.2789,10.2789,10.2789,10.2789,10.2789,10.2789,10.2789,10.2789,10.2789,10.2789,10.2789,10.2789,10.2789,10.2789,10.2789,10.2789,10.2789,10.2789,10.2789,10.2789,10.2789,10.2789,10.2789,10.2789,10.2789,10.2789,10.2789,10.2789,10.2789,10.2789,10.2789,10.2789,10.281,10.2811,10.289,10.289,10.289,10.289,10.289,10.289,10.289,10.289,10.289,10.289,10.289,10.289,10.289,10.289,10.289,10.289,10.289,10.289,10.3281,10.3711,10.4219,10.5781,10.6914,10.7304,10.7812,10.8008,10.8008,10.8008,10.8008,8.2606,8.3386,8.4263,8.4701,8.5604,8.6635,8.7769,8.866,8.9435,9.0081,9.0748,9.1287,9.1479,9.1508,9.1522,9.1522,9.1669,9.1781,9.1799,9.1592,9.181,9.2892,9.3597,9.4406,9.552,9.6392,9.6951,9.6989,9.7145,9.724,9.7316,9.7479,9.7636,9.7714,9.7714,9.7714,9.7714,9.7714,9.7714,9.7714,9.7714,9.7714,9.7753,9.8846,9.9705,10.029,10.1188,10.2008,10.2789,10.2789,10.2789,10.2789,10.2789,10.2789,10.2789,10.2789,10.2789,10.2789,10.2789,10.2789,10.2789,10.2789,10.2789,10.2789,10.2789,10.2789,10.2789,10.2789,10.2789,10.2789,10.2789,10.2789,10.2789,10.2789,10.2789,10.2789,10.2789,10.2789,10.2789,10.2789,10.2789,10.281,10.2806,10.2886,10.2888,10.289,10.289,10.289,10.289,10.289,10.289,10.289,10.289,10.289,10.289,10.289,10.289,10.289,10.289,10.289,10.289,10.289,10.3203,10.3906,10.5312,10.6289,10.6719,10.7383,10.7812,10.8008,10.8008,10.8008,8.3426,8.4675,8.5942,8.5765,8.639,8.7371,8.8635,8.8969,8.9426,9.0856,9.1171,9.1441,9.2287,9.1933,9.1522,9.1522,9.1484,9.1539,9.1541,9.1346,9.1818,9.3474,9.3674,9.4445,9.6365,9.6592,9.6741,9.6972,9.701,9.7081,9.7308,9.7323,9.744,9.7675,9.7714,9.7714,9.7714,9.7714,9.7714,9.7714,9.7714,9.7714,9.7753,9.947,10.029,10.029,10.1188,10.2008,10.2789,10.2789,10.2789,10.2789,10.2789,10.2789,10.2789,10.2789,10.2789,10.2789,10.2789,10.2789,10.2789,10.2789,10.2789,10.2789,10.2789,10.2789,10.2789,10.2789,10.2789,10.2789,10.2789,10.2789,10.2789,10.2789,10.2789,10.2789,10.2789,10.2789,10.2789,10.2789,10.2789,10.2789,10.2796,10.2913,10.2894,10.2889,10.289,10.289,10.289,10.289,10.289,10.289,10.289,10.289,10.289,10.289,10.289,10.289,10.289,10.289,10.289,10.289,10.289,10.3008,10.3906,10.5117,10.6719,10.6719,10.7187,10.8008,10.8008,10.8008,8.4167,8.5182,8.6059,8.5843,8.6468,8.7433,8.8688,8.9008,8.9398,9.0894,9.121,9.1287,9.1595,9.1585,9.1659,9.2062,9.1763,9.1465,9.1322,9.1236,9.1787,9.3512,9.3674,9.4406,9.6249,9.6403,9.6442,9.6519,9.6673,9.6767,9.6837,9.7121,9.7323,9.744,9.7597,9.7714,9.7714,9.7714,9.7714,9.7714,9.7714,9.7714,9.7753,9.9509,10.029,10.0407,10.1696,10.2515,10.2789,10.2789,10.2789,10.2789,10.2789,10.2789,10.2789,10.2789,10.2789,10.2789,10.2789,10.2789,10.2789,10.2789,10.2789,10.2789,10.2789,10.2789,10.2789,10.2789,10.2789,10.2789,10.2789,10.2789,10.2789,10.2789,10.2789,10.2789,10.2789,10.2789,10.2789,10.2789,10.2789,10.2789,10.2789,10.2789,10.2894,10.2889,10.289,10.289,10.289,10.289,10.289,10.289,10.289,10.289,10.289,10.289,10.289,10.289,10.289,10.289,10.289,10.289,10.289,10.289,10.3203,10.3906,10.5117,10.6211,10.6914,10.7187,10.7695,10.8008,8.498,8.5824,8.6414,8.626,8.6663,8.7433,8.8688,8.9008,8.9398,9.0894,9.121,9.1287,9.1595,9.176,9.1901,9.2053,9.1682,9.1361,9.1206,9.121,9.171,9.3127,9.352,9.4252,9.5712,9.6134,9.6288,9.6288,9.6403,0.0,9.6596,9.6965,9.7277,9.744,9.7597,9.7714,9.7714,9.7714,9.7714,9.7714,9.7714,9.7714,9.7753,9.9509,10.029,10.0407,10.2086,10.2789,10.2789,10.2789,10.2789,10.2789,10.2789,10.2789,10.2789,10.2789,10.2789,10.2789,10.2789,10.2789,10.2789,10.2789,10.2789,10.2789,10.2789,10.2789,10.2789,10.2789,10.2789,10.2789,10.2789,10.2789,10.2789,10.2789,10.2789,10.2789,10.2789,10.2789,10.2789,10.2789,10.2789,10.2789,10.2789,10.2789,10.2803,10.2921,10.2889,10.289,10.289,10.289,10.289,10.289,10.289,10.289,10.289,10.289,10.289,10.289,10.289,10.289,10.289,10.289,10.289,10.289,10.289,10.3203,10.3789,10.5195,10.6093,10.6719,10.7304,10.7695,0.0,0.0,0.0,8.7092,8.7092,8.7433,8.8713,8.9008,8.9426,9.0894,9.121,9.1479,9.2326,9.2479,9.221,9.1325,9.121,9.1248,9.121,9.121,9.1518,9.2399,9.3213,9.4022,9.4943,9.5789,9.6288,9.6288,9.6288,9.6403,9.6557,9.6861,9.7197,9.7667,9.7714,9.7714,9.7714,9.7714,9.7714,9.7714,9.7714,9.7714,9.7753,9.947,10.029,10.0407,10.2008,10.2789,10.2789,10.2789,10.2789,10.2789,10.2789,10.2789,10.2789,10.2789,10.2789,10.2789,10.2789,10.2789,10.2789,10.2789,10.2789,10.2789,10.2789,10.2789,10.2789,10.2789,10.2789,10.2789,10.2789,10.2789,10.2789,10.2789,10.2789,10.2789,10.2789,10.2789,10.2789,10.2789,10.2789,10.2789,10.2789,10.2789,10.2789,10.2906,10.2917,10.289,10.289,10.289,10.289,10.289,10.289,10.289,10.289,10.289,10.289,10.289,10.289,10.289,10.289,10.289,10.289,10.289,10.289,10.289,10.289,10.3789,10.5,10.6601,10.6719,10.7187,8.6557,0.0,0.0,0.0,0.0,0.0,8.9074,8.9205,8.9483,9.1097,9.1303,9.1287,9.1518,9.2056,9.221,9.1325,9.1748,9.1902,9.1287,9.121,9.1518,9.2399,9.321,9.4057,9.4905,9.5789,9.6288,0.0,9.6288,9.6326,9.6365,9.678,9.7123,9.7401,9.7597,9.7714,9.7714,9.7714,9.7714,9.7714,9.7714,9.7714,9.7753,9.8846,9.9705,10.0407,10.1383,10.2203,10.2789,10.2789,10.2789,10.2789,10.2789,10.2789,10.2789,10.2789,10.2789,10.2789,10.2789,10.2789,10.2789,10.2789,10.2789,10.2789,10.2789,10.2789,10.2789,10.2789,10.2789,10.2789,10.2789,10.2789,10.2789,10.2789,10.2789,10.2789,10.2789,10.2789,10.2789,10.2789,10.2789,10.2789,10.2789,10.2789,10.2789,10.2789,10.28,10.2812,10.289,10.289,10.289,10.289,10.289,10.289,10.289,10.289,10.289,10.289,10.289,10.289,10.289,10.289,10.289,10.289,10.289,10.289,10.289,10.3789,10.4414,10.4883,10.6093,10.6797,0.0,0.0,8.7192,8.7354,0.0,0.0,8.9123,8.9292,8.9552,9.1068,9.127,9.121,9.121,9.2172,9.271,9.1864,9.2441,9.2595,9.1364,9.121,9.1402,9.1899,9.2707,9.3518,9.4405,9.5251,9.5942,9.6288,9.6288,9.6326,9.6403,9.6812,9.7104,9.7277,9.7572,9.7714,9.7714,9.7714,9.7714,9.7714,9.7714,9.7714,9.7714,9.8612,9.947,10.029,10.1188,10.2008,10.2789,10.2789,10.2789,10.2789,10.2789,10.2789,10.2789,10.2789,10.2789,10.2789,10.2789,10.2789,10.2789,10.2789,10.2789,10.2789,10.2789,10.2789,10.2789,10.2789,10.2789,10.2789,10.2789,10.2789,10.2789,10.2789,10.2789,10.2789,10.2789,10.2789,10.2789,10.2789,10.2789,10.2789,10.2789,10.2789,10.2789,10.2789,10.2783,10.28,10.2917,10.2888,10.289,10.289,10.289,10.289,10.289,10.289,10.289,10.289,10.289,10.289,10.289,10.289,10.289,10.289,10.289,10.289,10.289,10.3398,10.3789,10.4219,10.5586,10.6211,0.0,0.0,0.0,0.0,0.0,0.0,8.9095,8.9333,8.9686,9.0982,9.1241,9.121,9.121,9.2556,9.3441,9.2633,9.3249,9.3249,9.1595,9.1248,9.121,9.121,9.1976,9.2826,9.3599,9.452,9.5366,9.6249,9.6288,9.6365,9.6557,9.6788,9.704,9.7243,9.7511,9.7659,9.7714,9.7714,9.7714,9.7714,9.7714,9.7714,9.7714,9.8494,9.9392,10.029,10.111,10.1891,10.2789,10.2789,10.2789,10.2789,10.2789,10.2789,10.2789,10.2789,10.2789,10.2789,10.2789,10.2789,10.2789,10.2789,10.2789,10.2789,10.2789,10.2789,10.2789,10.2789,10.2789,10.2789,10.2789,10.2789,10.2789,10.2789,10.2789,10.2789,10.2789,10.2789,10.2789,10.2789,10.2789,10.2789,10.2789,10.2789,10.2789,10.2789,10.2789,10.2789,10.2906,10.2917,10.289,10.289,10.289,10.289,10.289,10.289,10.289,10.289,10.289,10.289,10.289,10.289,10.289,10.289,10.289,10.289,10.289,10.289,10.3281,10.4101,10.4883,10.539,0.0,0.0,0.0,0.0,0.0,0.0,8.9476,8.9567,8.9776,9.1432,9.1445,9.121,9.121,9.2556,9.3441,9.2633,9.3749,9.4172,9.2479,9.1633,9.121,9.121,9.1979,9.2826,9.3633,9.448,9.5365,9.6249,9.6288,9.6326,9.6365,9.6557,9.6769,9.7048,9.7271,9.7474,9.7714,9.7714,9.7714,9.7714,9.7714,9.7714,9.7714,9.787,9.8807,10.029,10.0485,10.1383,10.2789,10.2789,10.2789,10.2789,10.2789,10.2789,10.2789,10.2789,10.2789,10.2789,10.2789,10.2789,10.2789,10.2789,10.2789,10.2789,10.2789,10.2789,10.2789,10.2789,10.2789,10.2789,10.2789,10.2789,10.2789,10.2789,10.2789,10.2789,10.2789,10.2789,10.2789,10.2789,10.2789,10.2789,10.2789,10.2789,10.2789,10.2789,10.2789,10.2789,10.2906,10.2917,10.289,10.289,10.289,10.289,10.289,10.289,10.289,10.289,10.289,10.289,10.289,10.289,10.289,10.289,10.289,10.289,10.289,10.289,10.3008,10.3203,10.3984,10.4492,0.0,0.0,0.0,8.7354,0.0,0.0,0.0,8.9551,8.9776,9.1369,9.1415,9.121,9.121,9.2249,9.3095,9.3095,9.3787,9.421,9.3787,9.2633,9.1672,9.1248,9.1595,9.2172,9.3018,9.3864,9.4903,9.6211,9.6288,9.6288,9.6288,9.648,9.6641,9.6819,9.713,9.7364,9.7483,9.7611,9.7714,9.7714,9.7714,9.7714,9.7714,9.7714,9.8416,9.9666,10.0095,10.0993,10.2203,10.2593,10.2789,10.2789,10.2789,10.2789,10.2789,10.2789,10.2789,10.2789,10.2789,10.2789,10.2789,10.2789,10.2789,10.2789,10.2789,10.2789,10.2789,10.2789,10.2789,10.2789,10.2789,10.2789,10.2789,10.2789,10.2789,10.2789,10.2789,10.2789,10.2789,10.2789,10.2789,10.2789,10.2789,10.2789,10.2789,10.2789,10.2789,10.2789,10.2789,10.2917,10.289,10.289,10.289,10.289,10.289,10.289,10.289,10.289,10.289,10.289,10.289,10.289,10.289,10.289,10.289,10.289,10.289,10.289,10.289,10.289,10.3281,10.3594,0.0,0.0,0.0,0.0,0.0,8.7877,0.0,0.0,0.0,9.1202,9.1329,9.121,9.121,9.1902,9.2672,9.3133,9.3633,9.4057,9.4441,9.3633,9.2595,9.1556,9.1287,9.1556,9.2402,9.3364,9.4518,9.5942,9.6211,9.6288,9.6288,9.6442,9.6544,9.6628,9.7005,9.726,9.7301,9.7554,9.7714,9.7714,9.7714,9.7714,9.7714,9.7714,9.8182,9.9041,9.9744,10.0603,10.1618,10.2281,10.2593,10.2789,10.2789,10.2906,10.3101,10.3101,10.3218,10.3296,10.3296,10.3296,10.3296,10.3101,10.2906,10.2789,10.2789,10.2789,10.2789,10.2789,10.2789,10.2789,10.2789,10.2789,10.2789,10.2789,10.2789,10.2789,10.2789,10.2789,10.2789,10.2789,10.2789,10.2789,10.2789,10.2789,10.2789,10.2789,10.2789,10.2789,10.2789,10.2914,10.2889,10.289,10.289,10.289,10.289,10.289,10.289,10.289,10.289,10.289,10.289,10.289,10.289,10.289,10.289,10.289,10.289,10.289,10.289,10.289,10.289,10.289,0.0,0.0,0.0,0.0,8.7408,0.0,0.0,0.0,9.0351,9.1329,0.0,9.121,9.121,0.0,0.0,9.1595,9.3364,9.4364,9.2979,9.3903,9.4134,9.2556,9.1672,9.1556,9.2402,9.3941,9.4903,9.5134,9.5865,9.6288,9.6288,9.6326,9.6429,9.659,9.6888,9.713,9.7301,9.7554,9.7714,9.7714,9.7714,9.7714,9.7714,9.7714,9.8182,9.9002,9.9119,10.0017,10.15,10.1618,10.2086,10.2789,10.2789,10.3296,10.3999,10.3999,10.4389,10.5092,10.5092,10.5092,10.5014,10.4194,10.3413,10.2789,10.2789,10.2789,10.2789,10.2789,10.2789,10.2789,10.2789,10.2789,10.2789,10.2789,10.2789,10.2789,10.2789,10.2789,10.2789,10.2789,10.2789,10.2789,10.2789,10.2789,10.2789,10.2789,10.2789,10.2789,10.2789,10.2913,10.29,10.289,10.289,10.289,10.289,10.289,10.289,10.289,10.289,10.289,10.289,10.289,10.289,10.289,10.289,10.289,10.289,10.289,10.289,10.289,10.289,10.289,0.0,0.0,0.0,0.0,0.0,0.0,0.0,0.0,9.045,0.0,0.0,0.0,0.0,0.0,0.0,0.0,9.2864,9.3633,9.3903,9.4095,9.398,9.3287,9.2441,0.0,9.2441,9.3133,9.3941,9.4903,9.5326,9.5788,9.6288,9.6288,9.6322,9.6386,9.6786,9.7048,9.7149,9.7522,9.7714,9.7714,9.7714,9.7714,9.7714,9.7714,9.7909,9.826,9.8768,9.9392,10.0095,10.0603,10.0993,10.1383,10.1891,10.2906,10.4116,10.4116,10.4702,10.5404,10.5404,10.5404,10.5287,10.5014,10.4584,10.4311,10.4311,10.4311,10.4311,10.4311,10.4311,10.4311,10.4311,10.3882,10.3608,10.3608,10.3218,10.2789,10.2789,10.2789,10.2789,10.2789,10.2789,10.2789,10.2789,10.2789,10.2789,10.2789,10.2789,10.2789,10.2789,10.2789,10.2894,10.289,10.289,10.289,10.289,10.289,10.289,10.289,10.289,10.289,10.289,10.289,10.289,10.289,10.289,10.289,10.289,10.289,10.289,10.289,10.289,10.289,8.7785,0.0,0.0,0.0,0.0,0.0,0.0,0.0,0.0,0.0,0.0,0.0,0.0,0.0,0.0,0.0,0.0,9.2826,9.3826,9.4018,9.4057,9.4057,9.3133,0.0,0.0,9.2479,9.2979,9.421,9.4749,9.5288,9.5903,9.6172,9.6325,9.6355,9.6759,9.7027,9.709,9.7511,9.7714,9.7714,9.7714,9.7714,9.7714,9.7714,9.7714,9.7753,9.8377,9.8768,9.9041,9.9666,10.0095,10.0407,10.0915,10.2086,10.3491,10.4194,10.5014,10.5795,10.599,10.599,10.5795,10.5795,10.5599,10.5404,10.5404,10.5404,10.5404,10.5404,10.5404,10.5404,10.5404,10.4897,10.4506,10.4506,10.3999,10.3491,10.3491,10.3296,10.3218,10.3218,10.2984,10.2789,10.2789,10.2789,10.2789,10.2789,10.2789,10.2789,10.2789,10.2789,10.281,10.2884,10.2889,10.289,10.289,10.289,10.289,10.289,10.289,10.289,10.289,10.289,10.289,10.289,10.289,10.289,10.289,10.289,10.289,10.289,10.289,10.289,0.0,0.0,0.0,8.8705,0.0,0.0,0.0,0.0,9.1171,0.0,0.0,0.0,0.0,0.0,0.0,0.0,0.0,0.0,0.0,9.3403,9.4941,9.4941,9.348,9.2479,0.0,9.2479,9.2518,9.2595,9.4057,9.5018,9.5018,9.5826,9.639,9.656,9.6863,9.7071,9.7286,9.7554,9.7714,9.7714,9.7714,9.7714,9.7714,9.7714,9.7714,9.7714,9.7714,9.8221,9.9002,9.9041,9.9548,10.029,10.029,10.0798,10.1891,10.4389,10.5912,10.681,10.759,10.7395,10.6693,10.6693,10.6107,10.5404,10.5404,10.5404,10.5404,10.5404,10.5404,10.5404,10.5404,10.5404,10.5404,10.5404,10.5287,10.5287,10.5287,10.4702,10.4116,10.4116,10.3413,10.2789,10.2789,10.2789,10.2789,10.2789,10.2789,10.2789,10.2789,10.2789,10.2789,10.2906,10.2882,10.289,10.289,10.289,10.289,10.289,10.289,10.289,10.289,10.289,10.289,10.289,10.289,10.289,10.289,10.289,10.289,10.289,10.289,10.289,0.0,0.0,8.9633,9.021,0.0,0.0,0.0,0.0,0.0,0.0,0.0,0.0,0.0,0.0,0.0,0.0,0.0,0.0,0.0,9.3749,9.498,9.498,9.4613,9.3869,9.263,9.264,9.2634,9.2515,9.3518,9.4403,9.498,9.5826,9.639,9.659,9.6863,9.711,9.7301,9.7554,9.7714,9.7714,9.7714,9.7714,9.7714,9.7714,9.7714,9.7714,9.7714,9.787,9.8143,9.8143,9.8299,9.8651,9.9197,9.9627,10.0095,10.2086,10.3687,10.5084,10.599,10.6107,10.5795,10.5795,10.5599,10.5396,10.5396,10.5396,10.5396,10.5396,10.5795,10.6302,10.6302,10.6302,10.6302,10.6302,10.5795,10.5404,10.5404,10.5209,10.5014,10.5014,10.4702,10.4311,10.3804,10.3687,10.3491,10.2906,10.2789,10.2789,10.2789,10.2789,10.2789,10.2906,10.2905,10.2886,10.289,10.289,10.289,10.289,10.289,10.289,10.289,10.289,10.289,10.289,10.289,10.289,10.289,10.289,10.289,10.289,10.289,10.289,9.021,9.0364,0.0,0.0,9.121,0.0,9.121,0.0,0.0,0.0,0.0,0.0,0.0,0.0,0.0,0.0,0.0,0.0,0.0,9.3672,9.4706,9.5041,9.5175,9.4602,9.3092,9.2795,9.2518,9.2091,9.2826,9.3633,0.0,0.0,9.615,9.6732,9.6912,9.7149,9.746,9.7611,9.7714,9.7714,9.7714,9.7714,9.7714,9.7714,9.7714,9.7714,9.7714,9.7714,9.7714,9.7714,9.7714,9.7753,9.8299,9.8533,9.8768,10.0798,10.2593,10.4194,10.4702,10.5092,10.5404,10.5404,10.5404,10.5404,10.5404,10.5404,10.5482,10.5795,10.599,10.6302,10.6614,10.6497,10.6185,10.6185,10.5795,10.5396,10.5396,10.5201,10.5014,10.5287,10.5092,10.4897,10.4584,10.4584,10.4194,10.2984,10.2789,10.2789,10.2789,10.2789,10.2789,10.2906,10.29,10.2882,10.289,10.289,10.289,10.289,10.289,10.289,10.289,10.289,10.2812,10.2383,10.2695,10.2695,10.2383,10.2695,10.289,10.289,10.289,10.289]},{"header":{"parameterUnit":"m.s-1","parameterCategory":1,"la1":30.6,"la2":29.2853,"lo1":-89.7004,"lo2":-87.6739,"dy":0.0162,"dx":0.0183,"nx":112,"ny":82,"refTime":"2023-03-08T18:00:00:Z","depth":0,"parameterNumber":3,"parameterNumberName":"V-component_of_WINDS"},"data":[0.0,0.0,0.0,0.0,0.0,0.0,0.0,0.0,0.0,0.0,0.0,0.0,0.0,0.0,0.0,0.0,0.0,0.0,0.0,0.0,0.0,0.0,0.0,0.0,0.0,0.0,0.0,0.0,0.0,0.0,0.0,0.0,0.0,0.0,0.0,0.0,0.0,0.0,0.0,0.0,0.0,0.0,0.0,0.0,0.0,0.0,0.0,0.0,0.0,0.0,0.0,0.0,0.0,0.0,0.0,0.0,0.0,0.0,0.0,0.0,0.0,0.0,0.0,0.0,0.0,0.0,0.0,0.0,0.0,0.0,0.0,0.0,0.0,0.0,0.0,0.0,0.0,0.0,0.0,0.0,0.0,0.0,0.0,0.0,0.0,0.0,0.0,0.0,0.0,0.0,0.0,-1.1177,-1.0757,-1.0775,-1.0775,-1.0775,-1.0926,-1.1377,0.0,0.0,0.0,0.0,0.0,0.0,0.0,0.0,0.0,0.0,0.0,0.0,0.0,0.0,0.0,0.0,0.0,0.0,0.0,0.0,0.0,0.0,0.0,0.0,0.0,0.0,0.0,0.0,0.0,0.0,0.0,0.0,0.0,0.0,0.0,0.0,0.0,0.0,0.0,0.0,0.0,0.0,0.0,0.0,0.0,0.0,0.0,0.0,0.0,0.0,0.0,0.0,0.0,0.0,0.0,0.0,0.0,0.0,0.0,0.0,0.0,0.0,0.0,0.0,0.0,0.0,0.0,0.0,0.0,0.0,0.0,0.0,0.0,0.0,0.0,0.0,0.0,0.0,0.0,0.0,0.0,0.0,0.0,0.0,0.0,0.0,0.0,0.0,0.0,0.0,0.0,0.0,0.0,0.0,0.0,0.0,0.0,0.0,0.0,0.0,0.0,0.0,0.0,0.0,-1.1958,-1.0878,-1.0372,-1.0274,-1.0583,-1.0583,-1.1047,-1.1818,0.0,0.0,0.0,0.0,0.0,0.0,0.0,0.0,0.0,0.0,0.0,0.0,0.0,0.0,0.0,0.0,0.0,0.0,0.0,0.0,0.0,0.0,0.0,0.0,0.0,0.0,0.0,0.0,0.0,0.0,0.0,0.0,0.0,0.0,0.0,0.0,0.0,0.0,0.0,0.0,0.0,0.0,0.0,0.0,0.0,0.0,0.0,0.0,0.0,0.0,0.0,0.0,0.0,0.0,0.0,0.0,0.0,0.0,0.0,0.0,0.0,0.0,0.0,0.0,0.0,0.0,0.0,0.0,0.0,0.0,0.0,0.0,0.0,0.0,0.0,0.0,0.0,0.0,0.0,0.0,0.0,0.0,0.0,0.0,0.0,0.0,0.0,0.0,0.0,0.0,0.0,0.0,0.0,0.0,0.0,0.0,0.0,0.0,0.0,0.0,0.0,0.0,0.0,-1.103,-1.0944,-1.04,-1.0142,-1.0019,-1.033,-1.033,-1.0641,-1.1572,-1.1453,0.0,0.0,0.0,0.0,0.0,0.0,0.0,0.0,0.0,0.0,0.0,0.0,0.0,0.0,0.0,0.0,0.0,0.0,0.0,0.0,0.0,0.0,0.0,0.0,0.0,0.0,0.0,0.0,0.0,0.0,0.0,0.0,0.0,0.0,0.0,0.0,0.0,0.0,0.0,0.0,0.0,0.0,0.0,0.0,0.0,0.0,0.0,0.0,0.0,0.0,0.0,0.0,0.0,0.0,0.0,0.0,0.0,0.0,0.0,0.0,0.0,0.0,0.0,0.0,0.0,0.0,0.0,0.0,0.0,0.0,0.0,0.0,0.0,0.0,0.0,0.0,0.0,0.0,0.0,0.0,0.0,0.0,0.0,0.0,0.0,0.0,0.0,0.0,0.0,0.0,0.0,0.0,0.0,0.0,0.0,0.0,0.0,0.0,0.0,0.0,0.0,0.0,-1.0257,-1.0003,-1.0019,-1.0019,-1.0019,-1.0019,-1.0019,-1.033,-1.1262,-1.1262,0.0,0.0,0.0,0.0,0.0,0.0,0.0,0.0,0.0,0.0,0.0,0.0,0.0,0.0,0.0,0.0,0.0,0.0,0.0,0.0,0.0,0.0,0.0,0.0,0.0,0.0,0.0,0.0,0.0,0.0,0.0,0.0,0.0,0.0,0.0,0.0,0.0,0.0,0.0,0.0,0.0,0.0,0.0,0.0,0.0,0.0,0.0,0.0,0.0,0.0,0.0,0.0,0.0,0.0,0.0,0.0,0.0,0.0,0.0,0.0,0.0,0.0,0.0,0.0,0.0,0.0,0.0,0.0,0.0,0.0,0.0,0.0,0.0,0.0,0.0,0.0,0.0,0.0,0.0,0.0,0.0,0.0,0.0,0.0,0.0,0.0,0.0,0.0,0.0,0.0,0.0,0.0,0.0,0.0,0.0,0.0,0.0,0.0,0.0,0.0,0.0,0.0,-1.0952,-1.0019,-1.0019,-1.0019,-1.0019,-1.0019,-1.0019,-1.033,-1.1262,-1.1262,0.0,0.0,0.0,0.0,0.0,0.0,0.0,0.0,0.0,0.0,0.0,0.0,0.0,0.0,0.0,0.0,0.0,0.0,0.0,0.0,0.0,0.0,0.0,0.0,0.0,0.0,0.0,0.0,0.0,0.0,0.0,0.0,0.0,0.0,0.0,0.0,0.0,0.0,0.0,0.0,0.0,0.0,0.0,0.0,0.0,0.0,0.0,0.0,0.0,0.0,0.0,0.0,0.0,0.0,0.0,0.0,0.0,0.0,0.0,0.0,0.0,0.0,0.0,0.0,0.0,0.0,0.0,0.0,0.0,0.0,0.0,0.0,0.0,0.0,0.0,0.0,0.0,0.0,0.0,0.0,0.0,0.0,0.0,0.0,0.0,0.0,0.0,0.0,0.0,0.0,0.0,0.0,0.0,0.0,0.0,0.0,0.0,0.0,0.0,0.0,0.0,0.0,-1.0442,-0.9998,0.0,-0.9924,-1.0083,-1.0248,-1.0248,-1.0407,-1.1042,0.0,0.0,0.0,0.0,0.0,0.0,0.0,0.0,0.0,0.0,0.0,0.0,0.0,0.0,0.0,0.0,0.0,0.0,0.0,0.0,0.0,0.0,0.0,0.0,0.0,0.0,0.0,0.0,0.0,0.0,0.0,0.0,0.0,0.0,0.0,0.0,0.0,0.0,0.0,0.0,0.0,0.0,0.0,0.0,0.0,0.0,0.0,0.0,0.0,0.0,0.0,0.0,0.0,0.0,0.0,0.0,0.0,0.0,0.0,0.0,0.0,0.0,0.0,0.0,0.0,0.0,0.0,0.0,0.0,0.0,0.0,0.0,0.0,0.0,0.0,0.0,0.0,0.0,0.0,0.0,0.0,0.0,0.0,0.0,0.0,0.0,0.0,0.0,0.0,0.0,0.0,0.0,0.0,0.0,0.0,0.0,0.0,0.0,0.0,0.0,0.0,0.0,-1.0226,-1.0089,-1.0286,0.0,-1.0222,-1.0222,-1.055,-1.0389,-1.0545,-1.0861,0.0,0.0,0.0,0.0,0.0,0.0,0.0,0.0,0.0,0.0,0.0,0.0,0.0,0.0,0.0,0.0,0.0,0.0,0.0,0.0,0.0,0.0,0.0,0.0,0.0,0.0,0.0,0.0,0.0,0.0,0.0,0.0,0.0,0.0,0.0,0.0,0.0,0.0,0.0,0.0,0.0,0.0,0.0,0.0,0.0,0.0,0.0,0.0,0.0,0.0,0.0,0.0,0.0,0.0,0.0,0.0,0.0,0.0,0.0,0.0,0.0,0.0,0.0,0.0,0.0,0.0,0.0,0.0,0.0,0.0,0.0,0.0,0.0,0.0,0.0,0.0,0.0,0.0,0.0,0.0,0.0,0.0,0.0,0.0,0.0,0.0,0.0,0.0,0.0,0.0,0.0,0.0,0.0,0.0,0.0,0.0,0.0,0.0,0.0,0.0,0.0,0.0,-1.003,-1.0384,-1.0717,-1.0717,-1.0717,-1.0717,-1.0717,-1.0717,-1.055,0.0,0.0,0.0,0.0,0.0,0.0,0.0,0.0,0.0,0.0,0.0,0.0,0.0,0.0,0.0,0.0,0.0,0.0,0.0,0.0,0.0,0.0,0.0,0.0,0.0,0.0,0.0,0.0,0.0,0.0,0.0,0.0,0.0,0.0,0.0,0.0,0.0,0.0,0.0,0.0,0.0,0.0,0.0,0.0,0.0,0.0,0.0,0.0,0.0,0.0,0.0,0.0,0.0,0.0,0.0,0.0,0.0,0.0,0.0,0.0,0.0,0.0,0.0,0.0,0.0,0.0,0.0,0.0,0.0,0.0,0.0,0.0,0.0,0.0,0.0,0.0,0.0,0.0,0.0,0.0,0.0,0.0,0.0,0.0,0.0,0.0,0.0,0.0,0.0,0.0,0.0,0.0,0.0,0.0,0.0,0.0,0.0,0.0,0.0,0.0,0.0,0.0,0.0,-1.0487,-1.0666,-1.0705,-1.0628,-1.0634,-1.0634,-1.0634,-1.0634,-1.0634,-1.0628,0.0,0.0,0.0,0.0,0.0,0.0,0.0,0.0,0.0,0.0,0.0,0.0,0.0,0.0,0.0,0.0,0.0,0.0,0.0,0.0,0.0,0.0,0.0,0.0,0.0,0.0,0.0,0.0,0.0,0.0,0.0,0.0,0.0,0.0,0.0,0.0,0.0,0.0,0.0,0.0,0.0,0.0,0.0,0.0,0.0,0.0,0.0,0.0,0.0,0.0,0.0,0.0,0.0,0.0,0.0,0.0,0.0,0.0,0.0,0.0,0.0,0.0,0.0,0.0,0.0,0.0,0.0,0.0,0.0,0.0,0.0,0.0,0.0,0.0,0.0,0.0,0.0,0.0,0.0,0.0,0.0,0.0,0.0,0.0,0.0,0.0,0.0,0.0,0.0,0.0,0.0,0.0,0.0,0.0,0.0,0.0,0.0,0.0,0.0,0.0,0.0,0.0,-1.0777,-1.0628,-1.0655,-1.0726,-1.0737,-1.0737,-1.0737,-1.0737,-1.0737,-1.0737,0.0,0.0,0.0,0.0,0.0,0.0,0.0,0.0,0.0,0.0,0.0,0.0,0.0,0.0,0.0,0.0,0.0,0.0,0.0,0.0,0.0,0.0,0.0,0.0,0.0,0.0,0.0,0.0,0.0,0.0,0.0,0.0,0.0,0.0,0.0,0.0,0.0,0.0,0.0,0.0,0.0,0.0,0.0,0.0,0.0,0.0,0.0,0.0,0.0,0.0,0.0,0.0,0.0,0.0,0.0,0.0,0.0,0.0,0.0,0.0,0.0,0.0,0.0,0.0,0.0,0.0,0.0,0.0,0.0,0.0,0.0,0.0,0.0,0.0,0.0,0.0,0.0,0.0,0.0,0.0,0.0,0.0,0.0,0.0,0.0,0.0,0.0,0.0,0.0,0.0,0.0,0.0,0.0,0.0,0.0,0.0,0.0,0.0,0.0,0.0,0.0,0.0,-1.0721,-1.0737,-1.0737,-1.0737,-1.0737,-1.0737,-1.0737,-1.0737,-1.0737,-1.0737,0.0,0.0,0.0,0.0,0.0,0.0,0.0,0.0,0.0,0.0,0.0,0.0,0.0,0.0,0.0,0.0,0.0,0.0,0.0,0.0,0.0,0.0,0.0,0.0,0.0,0.0,0.0,0.0,0.0,0.0,0.0,0.0,0.0,0.0,0.0,0.0,0.0,0.0,0.0,0.0,0.0,0.0,0.0,0.0,0.0,0.0,0.0,0.0,0.0,0.0,0.0,0.0,0.0,0.0,0.0,0.0,0.0,0.0,0.0,0.0,-0.2039,0.0,0.0,0.0,0.0,0.0,0.0,0.0,0.0,0.0,0.0,0.0,0.0,0.0,0.0,0.0,0.0,0.0,0.0,0.0,0.0,0.0,0.0,0.0,0.0,0.0,0.0,0.0,0.0,0.0,0.0,0.0,0.0,0.0,0.0,0.0,0.0,0.0,0.0,0.0,0.0,0.0,-1.0732,-1.0737,-1.0737,-1.0737,-1.0737,-1.0737,-1.0737,-1.0737,-1.0737,-1.0737,-1.0737,0.0,0.0,0.0,0.0,0.0,0.0,0.0,0.0,0.0,0.0,0.0,0.0,0.0,0.0,0.0,0.0,0.0,0.0,0.0,0.0,0.0,0.0,0.0,0.0,0.0,0.0,0.0,0.0,0.0,0.0,0.0,0.0,0.0,0.0,0.0,0.0,0.0,0.0,0.0,0.0,0.0,0.0,0.0,0.0,0.0,0.0,0.0,0.0,0.0,0.0,0.0,0.0,0.0,0.0,0.0,0.0,0.0,0.0,0.0,0.0,0.0,0.0,0.0,0.0,0.0,0.0,0.0,0.0,0.0,0.0,0.0,0.0,0.0,0.0,0.0,0.0,0.0,0.0,0.0,0.0,0.0,0.0,0.0,0.0,0.0,0.0,0.0,0.0,0.0,0.0,0.0,0.0,0.0,0.0,0.0,0.0,0.0,0.0,0.0,0.0,0.0,-1.0737,-1.0737,-1.0737,-1.0737,-1.0737,-1.0737,-1.0737,-1.0737,-1.0737,-1.0737,-1.0737,0.0,0.0,0.0,0.0,0.0,0.0,0.0,0.0,0.0,0.0,0.0,0.0,0.0,0.0,0.0,0.0,0.0,0.0,0.0,0.0,0.0,0.0,0.0,0.0,0.0,0.0,0.0,0.0,0.0,0.0,0.0,0.0,0.0,0.0,0.0,0.0,0.0,0.0,0.0,0.0,0.0,0.0,0.0,0.0,0.0,0.0,0.0,0.0,0.0,0.0,0.0,0.0,0.0,0.0,0.0,0.0,0.0,0.0,0.0,0.0,0.0,0.0,0.0,0.0,0.0,0.0,0.0,0.0,0.0,0.0,0.0,0.0,0.0,0.0,0.0,0.0,0.0,0.0,0.0,0.0,0.0,0.0,0.0,0.0,0.0,0.0,0.0,-0.6689,-0.8345,0.0,0.0,0.0,0.0,0.0,0.0,0.0,0.0,0.0,0.0,0.0,0.0,-1.0737,-1.0737,-1.0737,-1.0737,-1.0737,-1.0737,-1.0737,-1.0737,-1.0737,-1.0737,-1.0737,-1.0737,0.0,0.0,0.0,0.0,0.0,0.0,0.0,0.0,0.0,0.0,0.0,0.0,0.0,0.0,0.0,0.0,0.0,0.0,0.0,0.0,0.0,0.0,0.0,0.0,0.0,0.0,0.0,0.0,0.0,0.0,0.0,0.0,-0.2929,-0.7999,0.0,0.0,0.0,0.0,0.0,0.0,0.0,0.0,0.0,0.0,0.0,0.0,0.0,0.0,0.0,0.0,0.0,0.0,0.0,0.0,0.0,0.0,0.0,0.0,0.0,0.0,0.0,0.0,0.0,0.0,0.0,0.0,0.0,0.0,0.0,0.0,0.0,0.0,0.0,0.0,0.0,0.0,0.0,0.0,0.0,0.0,0.0,0.0,0.0,0.0,-0.1468,-0.4287,-0.3139,-0.2153,0.0,-0.5604,-0.5694,-0.5751,0.0,0.0,0.0,0.0,0.0,0.0,0.0,0.0,-1.0737,-1.0737,-1.0737,-1.0737,-1.0737,-1.0737,-1.0737,-1.0737,-1.0737,-1.0737,-1.0737,-1.0737,-1.0737,-1.0737,0.0,0.0,0.0,0.0,0.0,0.0,0.0,0.0,0.0,0.0,0.0,0.0,0.0,0.0,0.0,0.0,0.0,0.0,0.0,0.0,0.0,0.0,0.0,0.0,0.0,0.0,0.0,0.0,0.0,-0.1539,-0.0985,-0.3432,-0.1563,0.0,0.0,0.0,0.0,0.0,0.0,0.0,0.0,0.0,0.0,0.0,0.0,0.0,0.0,0.0,0.0,0.0,0.0,0.0,0.0,0.0,0.0,0.0,0.0,0.0,0.0,0.0,0.0,0.0,0.0,0.0,0.0,0.0,0.0,-0.0472,-0.3329,0.0,0.0,0.0,0.0,0.0,0.0,0.0,0.0,0.0,0.0,0.0,0.0,0.0,0.0,-0.2839,-0.1003,-0.0335,-0.1851,-0.217,-0.2156,0.0,-0.3499,-0.5846,-0.9913,0.0,0.0,0.0,0.0,0.0,-1.0737,-1.0748,-1.0775,-1.0661,-1.0677,-1.0709,-1.0763,-1.0709,-1.0667,-1.0667,-1.0775,-1.0737,-1.0737,-1.0737,-1.0737,0.0,0.0,0.0,0.0,0.0,0.0,0.0,0.0,0.0,0.0,0.0,0.0,0.0,0.0,0.0,0.0,0.0,0.0,0.0,0.0,0.0,0.0,0.0,0.0,0.0,0.0,0.0,0.0,0.0,0.0,0.0,0.0,0.0,0.0,0.0,0.0,0.0,0.0,0.0,0.0,0.0,0.0,0.0,0.0,0.0,0.0,0.0,0.0,0.0,0.0,0.0,0.0,0.0,0.0,0.0,0.0,0.0,0.0,0.0,0.0,0.0,0.0,0.0,0.0,0.0,0.0,0.0,0.0,0.0,0.0,0.0,0.0,-0.377,-0.3764,0.0,0.0,0.0,0.0,-0.6642,-0.7323,0.0,-0.6576,-0.1347,0.0,0.0,0.0,0.0,0.0,0.0,0.0,-0.168,-0.7052,0.0,0.0,0.0,0.0,-1.0624,-1.0629,-1.0667,-1.0033,-0.8207,-0.9773,-1.0854,-1.0929,-1.0849,-1.0795,-1.079,-1.0709,-1.0661,-1.0661,-1.0629,-1.078,-1.078,0.0,0.0,0.0,0.0,0.0,0.0,0.0,0.0,0.0,0.0,0.0,0.0,0.0,0.0,0.0,0.0,0.0,0.0,0.0,0.0,0.0,0.0,0.0,0.0,0.0,0.0,0.0,0.0,0.0,0.0,0.0,0.0,0.0,0.0,0.0,0.0,0.0,0.0,0.0,0.0,0.0,0.0,0.0,0.0,0.0,0.0,0.0,0.0,0.0,0.0,0.0,0.0,0.0,0.0,0.0,0.0,0.0,0.0,0.0,0.0,0.0,0.0,0.0,0.0,0.0,0.0,0.0,0.0,0.0,0.0,-0.0168,-0.0168,-0.0168,-0.2849,0.0,0.0,-1.0634,-0.8937,-0.2187,-0.0505,-0.0505,-0.0168,0.0,0.0,0.0,0.0,0.0,0.0,0.0,-0.0168,-0.0504,0.0,-1.0624,-1.0624,-1.0704,-1.0768,-1.0619,-1.0714,-0.8157,-0.1212,-0.7104,-1.1474,-1.1479,-1.1457,-1.1268,-1.0741,-1.0735,-1.0735,-1.0735,-1.0625,-1.0736,-1.0736,-1.0629,0.0,0.0,0.0,0.0,0.0,0.0,0.0,0.0,0.0,0.0,0.0,0.0,0.0,0.0,0.0,0.0,0.0,0.0,0.0,0.0,0.0,0.0,0.0,0.0,0.0,0.0,0.0,0.0,0.0,0.0,0.0,0.0,0.0,0.0,0.0,0.0,0.0,0.0,0.0,0.0,0.0,0.0,0.0,0.0,0.0,0.0,0.0,0.0,0.0,0.0,0.0,0.0,0.0,0.0,0.0,0.0,0.0,0.0,0.0,0.0,0.0,0.0,0.0,0.0,0.0,0.0,0.0,0.0,0.0,0.0,0.0,0.0,-0.0841,-0.2187,-0.3535,-0.3873,-0.32,-0.0674,0.0,0.0,0.0,0.0,0.0,0.0,0.0,0.0,0.0,0.0,0.0,0.0,-0.2037,-0.545,-0.9973,-1.0709,-1.0735,-1.0741,-0.6625,-0.2811,-0.0353,-0.249,-0.6091,-1.1035,-1.1433,-1.1505,-1.1154,-1.1188,-1.1279,-1.1279,-1.1235,-1.1036,-1.0688,-1.0742,-1.0683,0.0,0.0,0.0,0.0,0.0,0.0,0.0,0.0,0.0,0.0,0.0,0.0,0.0,0.0,0.0,0.0,0.0,0.0,0.0,0.0,0.0,0.0,0.0,0.0,0.0,0.0,0.0,0.0,0.0,0.0,0.0,0.0,0.0,0.0,0.0,0.0,0.0,0.0,0.0,0.0,0.0,0.0,0.0,0.0,0.0,0.0,0.0,0.0,0.0,0.0,0.0,0.0,0.0,0.0,0.0,0.0,0.0,0.0,0.0,0.0,0.0,0.0,0.0,0.0,0.0,0.0,0.0,0.0,0.0,0.0,0.0,0.0,0.0,0.0,0.0,0.0,0.0,0.0,0.0,0.0,0.0,0.0,0.0,0.0,0.0,0.0,0.0,0.0,0.0,0.0,-0.2586,-1.0145,-1.0904,-0.9873,-0.7417,-0.3027,0.0,0.0,0.0,-0.3113,-1.11,-1.1694,-1.1585,-1.1574,-1.1433,-1.1505,-1.1461,-1.1423,-1.1378,-1.0982,-1.0865,-1.0635,-1.0635,0.0,0.0,0.0,0.0,0.0,0.0,0.0,0.0,0.0,0.0,0.0,0.0,0.0,0.0,0.0,0.0,0.0,0.0,0.0,0.0,0.0,0.0,0.0,0.0,0.0,0.0,0.0,0.0,0.0,0.0,0.0,0.0,0.0,0.0,0.0,0.0,0.0,0.0,0.0,0.0,0.0,0.0,0.0,0.0,0.0,0.0,0.0,0.0,0.0,0.0,0.0,0.0,0.0,0.0,0.0,0.0,0.0,0.0,0.0,0.0,0.0,0.0,0.0,0.0,0.0,0.0,0.0,0.0,0.0,0.0,0.0,0.0,0.0,0.0,0.0,0.0,0.0,0.0,0.0,0.0,0.0,0.0,0.0,0.0,0.0,0.0,0.0,0.0,0.0,-0.2619,-1.0641,-1.1293,0.0,-0.0909,0.0,0.0,0.0,0.0,-0.3145,-1.1141,-1.2057,-1.2035,-1.1635,-1.1452,-1.1582,-1.1464,-1.1531,-1.1588,-1.1461,-1.0988,-1.0756,-1.0751,0.0,0.0,0.0,0.0,0.0,0.0,0.0,0.0,0.0,0.0,0.0,0.0,0.0,0.0,0.0,0.0,0.0,0.0,0.0,0.0,0.0,0.0,0.1415,0.0154,0.0,0.0,0.0,0.0,0.0,0.0,0.0,0.0488,0.1812,0.0824,0.0496,0.1835,0.0669,0.0,0.0,0.0,0.0,0.0,0.0,0.0,0.0,0.0,0.0,0.0,0.0,0.0,0.0,0.0,0.0,0.0,0.0,0.0,0.0,0.0,0.0,0.0,0.0,0.0,0.0,0.0,0.0,0.0,0.0,0.0,0.0,0.0,0.0,0.0,0.0,0.0,0.0,0.0,0.0,0.0,0.0,0.0,0.0,0.0,0.0,0.0,0.0,0.0,0.0,0.0,0.0,-0.0723,-0.3104,0.0,0.0,-0.1105,0.0,0.0,0.0,0.0,-0.0952,-0.3233,-0.8704,-1.2229,-1.1949,-1.2063,-1.2013,-1.198,-1.177,-1.1469,-1.1433,-1.1308,-1.1199,0.0,0.0,0.0,0.0,0.0,0.0,0.0,0.0,0.0,0.0,0.0,0.0,0.0,0.0,0.0,0.0,0.0,0.0,0.0,0.0,0.0,0.0,0.2567,0.1924,0.0158,0.0,0.0,0.0,0.0,0.0326,0.0983,0.1148,0.1318,0.15,0.0667,0.0502,0.1515,0.0505,0.0,0.0,0.0,0.0,0.0,0.0,0.0,0.0,0.0,0.0,0.0,0.0,0.0,0.0,0.0,0.0,0.0,0.0,0.0,0.0,0.0,0.0,0.0,0.0,0.0,0.0,0.0,0.0,0.0,0.0,0.0,0.0,0.0,0.0,0.0,0.0,0.0,0.0,0.0,0.0,0.0,0.0,0.0,0.0,0.0,0.0,0.0,0.0,0.0,0.0,0.0,0.0,0.0,0.0,-0.4127,-0.6597,0.0,-0.2099,0.0,0.0,-0.3294,-0.544,-0.5428,-0.9658,0.0,0.0,0.0,-1.0578,-0.729,-0.6863,0.0,0.0,0.0,-1.1465,0.0,0.0,0.0,0.0,-1.1328,-1.1255,0.0,0.0,0.0,0.0,0.0,0.0,0.0,0.0,0.0,0.0,0.0,0.0,0.0,0.0,0.0,0.0,0.2445,0.1957,0.0489,0.0326,0.0327,0.0326,0.0327,0.0984,0.2487,0.249,0.1666,0.0168,0.0,0.0168,0.0337,0.0,0.0,0.0,0.0,0.0337,0.0337,0.0169,0.0,0.0,0.0171,0.0172,0.0,0.0,0.0,0.0,0.0,0.0,0.0,0.0,0.0,0.0,0.0,0.0,0.0,0.0,0.0,0.0,0.0,0.0,0.0,0.0,0.0,0.0,0.0,0.0,0.0,0.0,0.0,0.0,0.0,0.0,0.0,0.0,0.0,0.0,0.0,0.0,0.0,0.0,0.0,0.0,0.0,0.0,0.0,0.0,0.0,0.0,-0.9819,-0.4516,0.0,0.0,0.0,0.0,-1.2814,-1.2607,-1.2189,-1.2342,-1.1368,-0.7575,-0.0381,0.0,0.0,0.0,-0.7575,-1.1603,-1.1661,-1.148,-1.1547,-1.1511,-1.1009,-1.094,0.0,0.0,0.0,0.0,0.0,0.0,0.0,0.0,0.0,0.0,0.0,0.0,0.0,0.0,0.0,0.1627,0.1476,0.1651,0.2146,0.2162,0.2167,0.2148,0.2162,0.2343,0.2684,0.1342,0.0336,0.0,0.0,0.0673,0.202,0.2188,0.0,0.2188,0.2207,0.2217,0.2218,0.0688,0.0,0.0,0.0,0.0,0.0,0.0,0.0,0.0,0.0,0.0,0.0,0.0,0.0,0.0,0.0,0.0,0.0,0.0,0.0,0.0,0.0,0.0,0.0,0.0,0.0,0.0,0.0,0.0,0.0,0.0,0.0,0.0,0.0,0.0,0.0,0.0,0.0,0.0,0.0,0.0,0.0,0.0,0.0,0.0,0.0,0.0,0.0,0.0,0.0,-0.0586,-0.2159,-0.0982,0.0,0.0,-0.1586,-0.5354,-1.2316,-1.2919,-1.2667,-1.2742,-0.6254,-0.1563,-0.0,0.0,0.0,0.0,-0.8028,-1.2057,-1.2019,-1.163,-1.141,-1.1544,-1.1395,-1.1367,0.0,0.0,0.0,0.0,0.0,0.0,0.0,0.0,0.0,0.0,0.0,0.0489,0.0,0.0,0.2468,0.215,0.1996,0.217,0.2672,0.2684,0.2687,0.2673,0.1845,0.1346,0.1346,0.1346,0.1346,0.1346,0.1346,0.1686,0.2714,0.2716,0.2722,0.2737,0.2752,0.2767,0.2784,0.1923,0.0881,0.0,0.1069,0.0896,0.0,0.0,0.0,0.0,0.0,0.0,0.0,0.0,0.0,0.0,0.0,0.0,0.0,0.0,0.0,0.0,0.0,0.0,0.0,0.0,0.0,0.0,0.0,0.0,0.0,0.0,0.0,0.0,0.0,0.0,0.0,0.0,0.0,0.0,0.0,0.0,0.0,0.0,0.0,0.0,0.0,0.0,0.0,0.0,0.0,0.0,0.0,0.0,0.0,0.0,0.0,-0.3405,-1.2258,-1.2857,-1.2825,-1.2968,-0.4745,0.0,0.0,0.0,0.0,0.0,-0.402,-0.6082,-0.6041,-0.9786,-1.1626,-1.1933,-1.1864,-1.171,0.0,0.0,0.0,0.0,0.0,0.0,0.0,0.0489,0.049,0.049,0.0491,0.0986,0.2488,0.2658,0.2667,0.2688,0.2692,0.2692,0.2524,0.2692,0.2692,0.2692,0.1346,0.0505,0.0505,0.185,0.2695,0.2701,0.2701,0.2714,0.2746,0.2747,0.2761,0.2791,0.2448,0.2287,0.2312,0.2316,0.1619,0.0,0.0,0.0,0.0,0.0,0.0,0.0,0.0,0.0,0.0,0.0,0.0,0.0,0.0,0.0,0.0,0.0,0.0,0.0,0.0,0.0,0.0,0.0,0.0,0.0,0.0,0.0,0.0,0.0,0.0,0.0,0.0,0.0,0.0,0.0,0.0,0.0,0.0,0.0,0.0,0.0,0.0,0.0,0.0,0.0,0.0,0.0,0.0,0.0,0.0,0.0,0.0,0.0,0.0,-0.2827,-0.9714,-1.0305,-1.0301,-1.0323,-0.3806,0.0,0.0,0.0,0.0,0.0,0.0,0.0,-0.0,-0.6147,-1.0312,-1.214,-1.2223,-1.1928,0.243,0.2435,0.2271,0.26,0.2602,0.2605,0.0,0.2462,0.2479,0.2479,0.2332,0.2515,0.2687,0.2688,0.2688,0.2692,0.2692,0.2524,0.2018,0.2356,0.2692,0.2692,0.2524,0.2356,0.2356,0.2524,0.2703,0.2731,0.2732,0.2746,0.2777,0.2778,0.2792,0.2823,0.1246,0.0359,0.0363,0.0366,0.0184,0.0,0.0,0.0,0.0,0.0,0.0,0.0,0.0,0.0,0.0,0.0,0.0,0.0,0.0,0.0,0.0,0.0,0.0,0.0,0.0,0.0,0.0,0.0,0.0,0.0,0.0,0.0,0.0,0.0,0.0,0.0,0.0,0.0,0.0,0.0,0.0,0.0,0.0,0.0,0.0,0.0,0.0,0.0,0.0,0.0,0.0,0.0,0.0,0.0,0.0,0.0,0.0,0.0,0.0,-0.0404,-0.1411,-0.1408,-0.1408,-0.1411,-0.0604,0.0,0.0,0.0,0.0,0.0,0.0,0.0,-0.0,-0.0782,-0.5076,-1.2137,-1.2105,-1.2243,0.26,0.2628,0.2652,0.2634,0.2643,0.2656,0.2656,0.2667,0.2675,0.2675,0.2684,0.2692,0.2692,0.2692,0.2692,0.0,0.2692,0.2692,0.2356,0.2524,0.2692,0.2692,0.2707,0.2712,0.2694,0.2709,0.2724,0.2736,0.2754,0.2785,0.2833,0.2836,0.2857,0.2904,0.2188,0.1836,0.1854,0.1874,0.1889,0.171,0.172,0.1729,0.1736,0.1742,0.175,0.1757,0.0588,0.0785,0.1767,0.1767,0.1178,0.0,0.0,0.0,0.0,0.0,0.0,0.0,0.0,0.0,0.0,0.0,0.0,0.0,0.0,0.0,0.0,0.0,0.0,0.0,0.0,0.0,0.0,0.0,0.0,0.0,0.0,0.0,0.0,0.0,0.0,0.0,0.0,0.0,0.0,0.0,0.0,0.0,0.0,0.0,0.0,0.0,0.0,0.0,0.0,0.0,0.0,0.0,0.0,0.0,0.0,0.0,0.0,0.0,0.0,0.0,0.0,0.0,-0.1779,-0.5131,-1.0228,-1.2654,0.2627,0.2658,0.2687,0.2665,0.2676,0.2692,0.2692,0.2692,0.2692,0.2692,0.2692,0.2692,0.2692,0.2692,0.2692,0.2692,0.2692,0.2692,0.2692,0.2699,0.2705,0.2705,0.2732,0.2746,0.2731,0.2743,0.2758,0.2774,0.2796,0.2834,0.2896,0.2898,0.2921,0.2972,0.2981,0.3188,0.3032,0.3062,0.3088,0.3111,0.3133,0.3142,0.3144,0.3152,0.316,0.3168,0.1583,0.1781,0.3168,0.3168,0.2375,0.0792,0.0792,0.0792,0.0792,0.0198,0.0,0.0,0.0,0.0,0.0,0.0,0.0,0.0,0.0,0.0,0.0,0.0,0.0,0.0,0.0,0.0,0.0,0.0,0.0,0.0,0.0,0.0,0.0,0.0,0.0,0.0,0.0,0.0,0.0,0.0,0.0,0.0,0.0,0.0,0.0,0.0,0.0,0.0,0.0,0.0,0.0,0.0,0.0,0.0,0.0,0.0,0.0,0.0,0.0,0.0,0.0,0.0,0.0,-0.0199,-0.8929,-1.288,0.269,0.2691,0.2692,0.2691,0.2691,0.2692,0.2692,0.2692,0.2692,0.2692,0.2692,0.2692,0.2692,0.2692,0.2692,0.2692,0.2692,0.2692,0.2692,0.2718,0.2736,0.2736,0.2763,0.2793,0.0,0.2799,0.2806,0.2866,0.2871,0.2897,0.2956,0.2958,0.3159,0.3005,0.3035,0.3065,0.3095,0.3125,0.3141,0.3141,0.3142,0.3142,0.3144,0.3174,0.3202,0.3231,0.3228,0.3228,0.3231,0.3231,0.3231,0.3029,0.3029,0.3029,0.2827,0.0808,0.0,0.0,0.0,0.0,0.0,0.0,0.0,0.0,0.0,0.0,0.0,0.0,0.0,0.0,0.0,0.0,0.0,0.0,0.0,0.0,0.0,0.0,0.0,0.0,0.0,0.0,0.0,0.0,0.0,0.0,0.0,0.0,0.0,0.0,0.0,0.0,0.0,0.0,0.0,0.0,0.0,0.0,0.0,0.0,0.0,0.0,0.0,0.0,0.0,0.0,0.0,0.0,0.0,-0.0201,-0.8892,-1.295,0.2692,0.2692,0.2692,0.2692,0.2692,0.2692,0.2692,0.2692,0.2692,0.2692,0.2692,0.2692,0.2692,0.2692,0.2692,0.2692,0.271,0.2722,0.2722,0.2748,0.2767,0.2767,0.2812,0.0,0.0,0.0,0.0,0.2898,0.292,0.295,0.299,0.301,0.3036,0.3066,0.3096,0.3118,0.3127,0.3157,0.3172,0.3174,0.3191,0.3201,0.3201,0.3212,0.3221,0.3231,0.3231,0.3231,0.3231,0.3231,0.3231,0.3231,0.3232,0.3234,0.3032,0.2424,0.2214,0.2002,0.04,0.0,0.0,0.0,0.0,0.0,0.0,0.0,0.0,0.0,0.0,0.0,0.0,0.0,0.0,0.0,0.0,0.0,0.0,0.0,0.0,0.0,0.0,0.0,0.0,0.0,0.0,0.0,0.0,0.0,0.0,0.0,0.0,0.0,0.0,0.0,0.0,0.0,0.0,0.0,0.0,0.0,0.0,0.0,0.0,0.0,0.0,0.0,0.0,0.0,0.0,-0.0,-0.3025,-0.7465,0.2692,0.2692,0.2692,0.2692,0.2692,0.2692,0.2692,0.2692,0.2692,0.2692,0.2692,0.2697,0.2706,0.2709,0.2713,0.2724,0.2742,0.2754,0.2754,0.278,0.2803,0.2814,0.2859,0.2897,0.0,0.0,0.0,0.2947,0.3163,0.3007,0.3037,0.3069,0.3093,0.3114,0.3144,0.3159,0.3159,0.3189,0.3204,0.3204,0.3221,0.323,0.323,0.323,0.323,0.323,0.323,0.323,0.323,0.323,0.323,0.323,0.3232,0.3232,0.3232,0.3232,0.3232,0.303,0.1616,0.0606,0.0,0.0,0.0,0.0,0.0,0.0,0.0,0.0,0.0,0.0,0.0,0.0,0.0,0.0,0.0,0.0,0.0,0.0,0.0,0.0,0.0,0.0,0.0,0.0,0.0,0.0,0.0,0.0,0.0,0.0,0.0,0.0,0.0,0.0,0.0,0.0,0.0,0.0,0.0,0.0,0.0,0.0,0.0,0.0,0.0,0.0,0.0,0.0,0.0,0.0,0.0,-0.3053,0.2692,0.2692,0.2692,0.2692,0.2692,0.2692,0.2692,0.2692,0.2692,0.2695,0.2695,0.2703,0.2735,0.274,0.275,0.2778,0.2785,0.2785,0.2785,0.2812,0.2844,0.0,0.0,0.0,0.0,0.0,0.0,0.3011,0.0,0.3067,0.3099,0.3129,0.3145,0.3145,0.3175,0.319,0.319,0.3217,0.323,0.323,0.323,0.323,0.323,0.323,0.323,0.323,0.323,0.323,0.323,0.3232,0.3232,0.3232,0.3234,0.3235,0.3235,0.3235,0.3235,0.3235,0.3238,0.182,0.0,0.0,0.0,0.0,0.0,0.0,0.0,0.0,0.0,0.0,0.0,0.0,0.0,0.0,0.0,0.0,0.0,0.0,0.0,0.0,0.0,0.0,0.0,0.0,0.0,0.0,0.0,0.0,0.0,0.0,0.0,0.0,0.0,0.0,0.0,0.0,0.0,0.0,0.0,0.0,0.0,0.0,0.0,0.0,0.0,0.0,0.0,0.0,0.0,0.0,0.0,0.0,0.2692,0.2692,0.2692,0.2692,0.2692,0.2692,0.2692,0.2692,0.2699,0.2721,0.2727,0.2735,0.2766,0.2772,0.2774,0.2782,0.2801,0.2816,0.2816,0.2861,0.0,0.2904,0.0,0.299,0.3005,0.3047,0.0,0.0,0.3081,0.3099,0.313,0.316,0.3176,0.3176,0.3205,0.3219,0.3219,0.3227,0.323,0.323,0.323,0.323,0.323,0.323,0.323,0.323,0.323,0.323,0.3232,0.3254,0.3264,0.3266,0.3288,0.3298,0.3298,0.3298,0.3298,0.3298,0.3299,0.1839,0.0,0.0,0.0,0.0,0.0,0.0,0.0,0.0,0.0,0.0,0.0,0.0,0.0,0.0,0.0,0.0,0.0,0.0,0.0,0.0,0.0,0.0,0.0,0.0,0.0,0.0,0.0,0.0,0.0,0.0,0.0,0.0,0.0,0.0,0.0,0.0,0.0,0.0,0.0,0.0,0.0,0.0,0.0,0.0,0.0,0.0,0.0,0.0,0.0,0.0,0.0,0.0,0.2692,0.2692,0.2692,0.2692,0.2692,0.2697,0.2709,0.2713,0.2721,0.2751,0.2758,0.2767,0.2797,0.2803,0.2807,0.2821,0.2837,0.2853,0.2866,0.2896,0.2926,0.2953,0.2986,0.0,0.3044,0.3078,0.3108,0.0,0.3137,0.3145,0.3161,0.319,0.3206,0.3206,0.3221,0.323,0.323,0.323,0.323,0.323,0.323,0.323,0.3231,0.3245,0.325,0.3251,0.0,0.327,0.3272,0.3288,0.3295,0.3298,0.3314,0.3321,0.3321,0.3321,0.3321,0.3321,0.3321,0.2475,0.1227,0.0409,0.0,0.0,0.0,0.0,0.0,0.0,0.0,0.0,0.0,0.0,0.0,0.0,0.0,0.0,0.0,0.0,0.0,0.0,0.0,0.0,0.0,0.0,0.0,0.0,0.0,0.0,0.0,0.0,0.0,0.0,0.0,0.0,0.0,0.0,0.0,0.0,0.0,0.0,0.0,0.0,0.0,0.0,0.0,0.0,0.0,0.0,0.0,0.0,0.0,0.0,0.2692,0.2692,0.2692,0.2692,0.2692,0.2701,0.2731,0.2737,0.2747,0.2782,0.2789,0.2799,0.2829,0.2834,0.2844,0.287,0.2876,0.2887,0.2912,0.2923,0.2947,0.3001,0.3014,0.304,0.3092,0.3104,0.3131,0.3185,0.3191,0.3194,0.3194,0.3217,0.323,0.323,0.323,0.323,0.323,0.323,0.323,0.323,0.3234,0.3236,0.3238,0.3268,0.3281,0.3283,0.0,0.0,0.3321,0.3325,0.3326,0.3328,0.3332,0.3333,0.3333,0.3333,0.3333,0.3333,0.3333,0.3333,0.3124,0.1039,0.0208,0.0,0.0,0.0,0.0,0.0,0.0,0.0,0.0,0.0,0.0,0.0,0.0,0.0,0.0,0.0,0.0,0.0,0.0,0.0,0.0,0.0,0.0,0.0,0.0,0.0,0.0,0.0,0.0,0.0,0.0,0.0,0.0,0.0,0.0,0.0,0.0,0.0,0.0,0.0,0.0,0.0,0.0,0.0,0.0,0.0,0.0,0.0,0.0,0.0,0.2692,0.2692,0.2692,0.2692,0.2692,0.2701,0.2731,0.2737,0.2754,0.281,0.2821,0.283,0.286,0.2866,0.2868,0.2874,0.2894,0.2911,0.2915,0.296,0.2995,0.3005,0.3051,0.3086,0.3096,0.3142,0.0,0.0,0.0,0.3223,0.3223,0.3227,0.323,0.323,0.323,0.323,0.323,0.323,0.323,0.3231,0.3255,0.3268,0.3269,0.3299,0.3313,0.3313,0.0,0.0,0.3324,0.3348,0.3358,0.3362,0.3386,0.3396,0.3396,0.3396,0.3396,0.3396,0.3396,0.3396,0.3388,0.292,0.1453,0.0,0.0,0.0,0.0,0.0,0.0,0.0,0.0,0.0,0.0,0.0,0.0,0.0,0.0,0.0,0.0,0.0,0.0,0.0,0.0,0.0,0.0,0.0,0.0,0.0,0.0,0.0,0.0,0.0,0.0,0.0,0.0,0.0,0.0,0.0,0.0,0.0,0.0,0.0,0.0,0.0,0.0,0.0,0.0,0.0,0.0,0.0,0.0,0.0,0.2692,0.2692,0.2692,0.2692,0.2705,0.2724,0.2755,0.2774,0.2797,0.2842,0.2852,0.2856,0.2871,0.2874,0.2879,0.2894,0.2906,0.2927,0.2958,0.2988,0.3018,0.3051,0.308,0.311,0.3141,0.3171,0.3194,0.3209,0.0,0.323,0.323,0.323,0.323,0.323,0.323,0.323,0.323,0.3246,0.3254,0.3254,0.3284,0.3299,0.33,0.333,0.3344,0.3345,0.3362,0.0,0.337,0.3384,0.339,0.3392,0.3407,0.3412,0.3412,0.3412,0.3412,0.3412,0.3412,0.3412,0.3407,0.3378,0.2736,0.1684,0.1684,0.1684,0.1475,0.0423,0.0,0.0,0.0,0.0,0.0,0.0,0.0,0.0,0.0,0.0,0.0,0.0,0.0,0.0,0.0,0.0,0.0,0.0,0.0,0.0,0.0,0.0,0.0,0.0,0.0,0.0,0.0,0.0,0.0,0.0,0.0,0.0,0.0,0.0,0.0,0.0,0.0,0.0,0.0,0.0,0.0,0.0,0.0,0.0,0.2692,0.2692,0.2694,0.2701,0.272,0.2747,0.2785,0.2811,0.2837,0.2868,0.2874,0.2874,0.2874,0.2879,0.289,0.2912,0.2927,0.2953,0.3001,0.3013,0.3037,0.3091,0.3103,0.3129,0.3183,0.3194,0.0,0.3228,0.323,0.0,0.323,0.323,0.323,0.323,0.3236,0.324,0.324,0.327,0.3285,0.3285,0.3315,0.333,0.3332,0.3362,0.3377,0.3378,0.3401,0.0,0.0,0.3412,0.3412,0.3412,0.3412,0.3412,0.3412,0.3412,0.3412,0.3412,0.3412,0.3412,0.3412,0.3412,0.3412,0.3412,0.3412,0.3412,0.2985,0.1279,0.0639,0.0639,0.0213,0.0,0.0,0.0,0.0,0.0,0.0,0.0,0.0,0.0,0.0,0.0,0.0,0.0,0.0,0.0,0.0,0.0,0.0,0.0,0.0,0.0,0.0,0.0,0.0,0.0,0.0,0.0,0.0,0.0,0.0,0.0,0.0,0.0,0.0,0.0,0.0,0.0,0.0,0.0,0.0,0.0,0.2692,0.2692,0.2699,0.2727,0.2736,0.2754,0.2811,0.2826,0.2837,0.2868,0.2874,0.2874,0.2874,0.2896,0.2913,0.2916,0.2962,0.3001,0.3006,0.3031,0.3061,0.3093,0.3122,0.3152,0.3185,0.3212,0.3227,0.323,0.323,0.0,0.323,0.323,0.323,0.323,0.3257,0.3272,0.3272,0.3302,0.3317,0.3317,0.3348,0.3362,0.3363,0.3393,0.3408,0.3408,0.0,0.0,0.0,0.3412,0.3412,0.3412,0.3412,0.3412,0.3412,0.3412,0.3412,0.3412,0.3412,0.3412,0.3412,0.3412,0.3412,0.3412,0.3412,0.3412,0.3412,0.3198,0.2985,0.2558,0.0639,0.0,0.0,0.0,0.0,0.0,0.0,0.0,0.0,0.0,0.0,0.0,0.0,0.0,0.0,0.0,0.0,0.0,0.0,0.0,0.0,0.0,0.0,0.0,0.0,0.0,0.0,0.0,0.0,0.0,0.0,0.0,0.0,0.0,0.0,0.0,0.0,0.0,0.0,0.0,0.0,0.0,0.2692,0.2706,0.2722,0.2735,0.2765,0.2799,0.2823,0.2842,0.2859,0.2871,0.2874,0.2879,0.2896,0.2908,0.2928,0.2964,0.2991,0.3013,0.3032,0.3061,0.3091,0.3122,0.3152,0.3182,0.321,0.3224,0.323,0.323,0.323,0.0,0.323,0.323,0.3239,0.3257,0.3269,0.3284,0.3303,0.3333,0.3348,0.3348,0.338,0.3393,0.3395,0.3407,0.3412,0.3412,0.3412,0.0,0.0,0.3412,0.3412,0.3412,0.3412,0.3412,0.3412,0.3412,0.3412,0.3412,0.3412,0.3412,0.3412,0.3412,0.3412,0.3412,0.3412,0.3412,0.3412,0.3412,0.3412,0.3198,0.2345,0.1066,0.0,0.0,0.0,0.0,0.0,0.0,0.0,0.0,0.0,0.0,0.0,0.0,0.0,0.0,0.0,0.0,0.0,0.0,0.0,0.0,0.0,0.0,0.0,0.0,0.0,0.0,0.0,0.0,0.0,0.0,0.0,0.0,0.0,0.0,0.0,0.0,0.0,0.0,0.0,0.0,0.2703,0.2721,0.2742,0.2761,0.2797,0.2831,0.284,0.2859,0.2874,0.2874,0.2881,0.2893,0.2912,0.2931,0.2957,0.2999,0.3014,0.3031,0.3061,0.3084,0.3112,0.3152,0.3175,0.32,0.3227,0.323,0.323,0.323,0.323,0.0,0.3243,0.3243,0.3254,0.3275,0.3294,0.3313,0.3335,0.3365,0.338,0.338,0.3401,0.3412,0.3412,0.3412,0.3412,0.3412,0.0,0.0,0.0,0.3412,0.3412,0.3412,0.3412,0.3412,0.3412,0.3412,0.3412,0.3412,0.3412,0.3412,0.3412,0.3412,0.3412,0.3412,0.3412,0.3412,0.3412,0.3412,0.3412,0.3412,0.3412,0.1708,0.0,0.0,0.0,0.0,0.0,0.0,0.0,0.0,0.0,0.0,0.0,0.0,0.0,0.0,0.0,0.0,0.0,0.0,0.0,0.0,0.0,0.0,0.0,0.0,0.0,0.0,0.0,0.0,0.0,0.0,0.0,0.0,0.0,0.0,0.0,0.0,0.0,0.0,0.0,0.0,0.2729,0.2737,0.2752,0.2812,0.2829,0.2837,0.2867,0.2874,0.2874,0.2874,0.2896,0.2916,0.2916,0.2965,0.3006,0.3006,0.3032,0.3062,0.3093,0.3097,0.312,0.318,0.3187,0.32,0.3227,0.323,0.323,0.323,0.323,0.0,0.3273,0.3275,0.3275,0.3276,0.3335,0.3366,0.3366,0.3396,0.3411,0.3411,0.3412,0.3412,0.3412,0.3412,0.3412,0.0,0.0,0.0,0.0,0.3412,0.3412,0.3412,0.3412,0.3412,0.3412,0.3412,0.3412,0.3412,0.3412,0.3412,0.3412,0.3412,0.3412,0.3412,0.3412,0.3412,0.3412,0.3412,0.3412,0.3412,0.3412,0.1717,0.0,0.0,0.0,0.0,0.0,0.0,0.0,0.0,0.0,0.0,0.0,0.0,0.0,0.0,0.0,0.0,0.0,0.0,0.0,0.0,0.0,0.0,0.0,0.0,0.0,0.0,0.0,0.0,0.0,0.0,0.0,0.0,0.0,0.0,0.0,0.0,0.0,0.0,0.0,0.0,0.2735,0.2769,0.2804,0.2823,0.2844,0.2861,0.2872,0.2874,0.2879,0.2898,0.2909,0.2928,0.2971,0.2994,0.3014,0.3035,0.3046,0.3063,0.3093,0.3115,0.3144,0.3183,0.3205,0.322,0.323,0.323,0.323,0.323,0.325,0.0,0.3275,0.3315,0.3337,0.3337,0.3356,0.3377,0.3397,0.3407,0.3412,0.3412,0.3412,0.3412,0.3412,0.3412,0.0,0.0,0.0,0.0,0.0,0.3412,0.3412,0.3412,0.3412,0.3412,0.3412,0.3412,0.3412,0.3412,0.3412,0.3412,0.3415,0.3435,0.3442,0.3446,0.3468,0.3445,0.3416,0.3437,0.3442,0.3017,0.1517,0.0435,0.0,0.0,0.0,0.0,0.0,0.0,0.0,0.0,0.0,0.0,0.0,0.0,0.0,0.0,0.0,0.0,0.0,0.0,0.0,0.0,0.0,0.0,0.0,0.0,0.0,0.0,0.0,0.0,0.0,0.0,0.0,0.0,0.0,0.0,0.0,0.0,0.0,0.0,0.0,0.0,0.2769,0.28,0.2831,0.2842,0.286,0.2874,0.2874,0.2874,0.2882,0.2911,0.2926,0.2947,0.2998,0.3016,0.3031,0.305,0.3052,0.3067,0.3108,0.3131,0.3159,0.32,0.322,0.323,0.323,0.323,0.323,0.323,0.0,0.0,0.3292,0.334,0.3371,0.3384,0.3384,0.3393,0.3411,0.3412,0.3412,0.3412,0.3412,0.3412,0.3412,0.3412,0.0,0.0,0.0,0.0,0.0,0.3412,0.3412,0.3412,0.3412,0.3412,0.3412,0.3412,0.3419,0.3429,0.3429,0.3437,0.3449,0.3468,0.3474,0.3478,0.3495,0.3476,0.345,0.3469,0.3474,0.3044,0.1749,0.0658,0.0,0.0,0.0,0.0,0.0,0.0,0.0,0.0,0.0,0.0,0.0,0.0,0.0,0.0,0.0,0.0,0.0,0.0,0.0,0.0,0.0,0.0,0.0,0.0,0.0,0.0,0.0,0.0,0.0,0.0,0.0,0.0,0.0,0.0,0.0,0.0,0.0,0.0,0.0,0.0,0.0,0.2831,0.2838,0.2867,0.2874,0.2874,0.2874,0.2874,0.0,0.2913,0.2942,0.2972,0.3003,0.3033,0.3052,0.3052,0.3054,0.3076,0.3134,0.3146,0.317,0.3224,0.323,0.323,0.323,0.323,0.3231,0.3234,0.0,0.0,0.3322,0.3354,0.3382,0.3411,0.3412,0.3412,0.3412,0.3412,0.3412,0.3412,0.3412,0.3412,0.3412,0.3412,0.0,0.0,0.0,0.0,0.0,0.3412,0.3412,0.3412,0.3412,0.3414,0.3415,0.3415,0.3434,0.346,0.346,0.3479,0.3502,0.3506,0.3506,0.3509,0.3509,0.3506,0.3502,0.3506,0.3506,0.3506,0.3509,0.1765,0.0,0.0,0.0,0.0,0.0,0.0,0.0,0.0,0.0,0.0,0.0,0.0,0.0,0.0,0.0,0.0,0.0,0.0,0.0,0.0,0.0,0.0,0.0,0.0,0.0,0.0,0.0,0.0,0.0,0.0,0.0,0.0,0.0,0.0,0.0,0.0,0.0,0.0,0.0,0.0,0.2849,0.0,0.2866,0.2872,0.2874,0.2874,0.0,0.2874,0.2889,0.2941,0.2957,0.2977,0.3032,0.3047,0.3052,0.3052,0.3071,0.31,0.3138,0.3182,0.3215,0.3228,0.323,0.323,0.323,0.323,0.324,0.3262,0.0,0.3324,0.3354,0.3385,0.3404,0.3411,0.3412,0.3412,0.3412,0.3412,0.3412,0.3412,0.3412,0.3412,0.3412,0.3412,0.0,0.0,0.0,0.0,0.3412,0.3412,0.3412,0.3412,0.3412,0.3426,0.3446,0.3446,0.3465,0.3491,0.3491,0.3495,0.3506,0.3527,0.3551,0.3569,0.3569,0.3538,0.3506,0.3527,0.3534,0.354,0.3562,0.1788,0.0,0.0,0.0,0.0,0.0,0.0,0.0,0.0,0.0,0.0,0.0,0.0,0.0,0.0,0.0,0.0,0.0,0.0,0.0,0.0,0.0,0.0,0.0,0.0,0.0,0.0,0.0,0.0,0.0,0.0,0.0,0.0,0.0,0.0,0.0,0.0,0.0,0.0,0.0,0.0,0.2857,0.2874,0.2874,0.2874,0.2874,0.2874,0.2874,0.2885,0.2906,0.2951,0.2972,0.2996,0.3043,0.3052,0.3052,0.3052,0.3078,0.3112,0.3157,0.3202,0.323,0.323,0.323,0.323,0.0,0.323,0.3243,0.3273,0.0,0.3335,0.3365,0.3396,0.3412,0.3412,0.3412,0.3412,0.3412,0.3412,0.3412,0.3412,0.3412,0.3412,0.3412,0.3412,0.3412,0.0,0.0,0.0,0.3412,0.3412,0.342,0.3433,0.3433,0.3452,0.3478,0.3478,0.3495,0.3524,0.3524,0.3531,0.3544,0.3562,0.3576,0.3589,0.3589,0.3569,0.3544,0.3562,0.3565,0.3569,0.3587,0.2692,0.1347,0.0224,0.0,0.0,0.0,0.0,0.0,0.0,0.0,0.0,0.0,0.0,0.0,0.0,0.0,0.0,0.0,0.0,0.0,0.0,0.0,0.0,0.0,0.0,0.0,0.0,0.0,0.0,0.0,0.0,0.0,0.0,0.0,0.0,0.0,0.0,0.0,0.0,0.0,0.0,0.2857,0.2874,0.2874,0.2874,0.2874,0.2874,0.2874,0.2896,0.2924,0.2956,0.2986,0.3016,0.3047,0.3052,0.3052,0.3052,0.3081,0.3126,0.3186,0.3215,0.323,0.323,0.323,0.323,0.323,0.323,0.3245,0.0,0.0,0.3336,0.3371,0.3397,0.3412,0.3412,0.3412,0.3412,0.3412,0.3412,0.3412,0.3412,0.3412,0.3412,0.3412,0.3412,0.3412,0.0,0.0,0.0,0.3412,0.3412,0.343,0.3457,0.3457,0.3479,0.3509,0.3509,0.3527,0.3551,0.3551,0.3569,0.3589,0.3589,0.3589,0.3589,0.3589,0.3589,0.3589,0.3589,0.3589,0.3589,0.3589,0.3589,0.3141,0.1122,0.0224,0.0,0.0,0.0,0.0,0.0,0.0,0.0,0.0,0.0,0.0,0.0,0.0,0.0,0.0,0.0,0.0,0.0,0.0,0.0,0.0,0.0,0.0,0.0,0.0,0.0,0.0,0.0,0.0,0.0,0.0,0.0,0.0,0.0,0.0,0.0,0.0,0.0,0.2857,0.2874,0.2874,0.2874,0.2874,0.2874,0.2874,0.2896,0.2924,0.2956,0.2986,0.3016,0.3047,0.3052,0.3052,0.3052,0.3099,0.3156,0.3216,0.3227,0.323,0.323,0.323,0.323,0.323,0.323,0.3254,0.0,0.0,0.3345,0.3401,0.341,0.3412,0.3412,0.3412,0.3412,0.3412,0.3412,0.3412,0.3412,0.3412,0.3412,0.3412,0.3412,0.3412,0.0,0.0,0.3412,0.3412,0.3412,0.343,0.3457,0.3457,0.349,0.3538,0.3538,0.3558,0.3583,0.3583,0.3587,0.3589,0.3589,0.3589,0.3589,0.3589,0.3589,0.3589,0.3589,0.3589,0.3589,0.3589,0.3589,0.3589,0.3141,0.1572,0.0,0.0,0.0,0.0,0.0,0.0,0.0,0.0,0.0,0.0,0.0,0.0,0.0,0.0,0.0,0.0,0.0,0.0,0.0,0.0,0.0,0.0,0.0,0.0,0.0,0.0,0.0,0.0,0.0,0.0,0.0,0.0,0.0,0.0,0.0,0.0,0.0,0.2857,0.2874,0.2874,0.2874,0.2874,0.2874,0.2874,0.2896,0.2924,0.2956,0.2986,0.3016,0.3047,0.3052,0.3063,0.3096,0.3138,0.3182,0.3224,0.323,0.323,0.0,0.0,0.323,0.323,0.3245,0.3273,0.0,0.0,0.0,0.341,0.3412,0.3412,0.3412,0.3412,0.3412,0.3412,0.3412,0.3412,0.3412,0.3412,0.3412,0.3412,0.3412,0.3412,0.3412,0.0,0.3412,0.3414,0.343,0.3454,0.3483,0.3499,0.3531,0.3569,0.3569,0.358,0.3589,0.3589,0.3589,0.3589,0.3589,0.3589,0.3589,0.3589,0.3589,0.3589,0.3589,0.3589,0.3589,0.3589,0.3589,0.3589,0.3589,0.2692,0.1572,0.0224,0.0,0.0,0.0,0.0,0.0,0.0,0.0,0.0,0.0,0.0,0.0,0.0,0.0,0.0,0.0,0.0,0.0,0.0,0.0,0.0,0.0,0.0,0.0,0.0,0.0,0.0,0.0,0.0,0.0,0.0,0.0,0.0,0.0,0.0,0.0,0.2859,0.2874,0.2874,0.2874,0.2874,0.2874,0.2874,0.2901,0.2932,0.2957,0.2991,0.3025,0.3048,0.3058,0.3082,0.3144,0.3172,0.3198,0.3227,0.323,0.323,0.0,0.0,0.323,0.323,0.3258,0.0,0.0,0.0,0.0,0.341,0.3412,0.3412,0.3412,0.3412,0.3412,0.3412,0.3412,0.3412,0.3412,0.3412,0.3412,0.3412,0.3412,0.3412,0.3412,0.3412,0.3416,0.3425,0.3448,0.3479,0.3513,0.3538,0.3562,0.3589,0.3589,0.3589,0.3589,0.3589,0.3589,0.3589,0.3589,0.3589,0.3589,0.3589,0.3589,0.3589,0.3589,0.3589,0.3589,0.3589,0.3589,0.3589,0.3589,0.3589,0.3141,0.1347,0.0449,0.0,0.0,0.0,0.0,0.0,0.0,0.0,0.0,0.0,0.0,0.0,0.0,0.0,0.0,0.0,0.0,0.0,0.0,0.0,0.0,0.0,0.0,0.0,0.0,0.0,0.0,0.0,0.0,0.0,0.0,0.0,0.0,0.0,0.0,0.2866,0.2874,0.2874,0.2874,0.2874,0.2874,0.2874,0.2917,0.0,0.2961,0.0,0.0,0.3052,0.3076,0.3114,0.3175,0.3187,0.3198,0.3227,0.0,0.323,0.323,0.0,0.323,0.323,0.3258,0.0,0.0,0.0,0.0,0.341,0.3412,0.3412,0.3412,0.3412,0.3412,0.3412,0.3412,0.3412,0.3412,0.3412,0.3412,0.3412,0.3412,0.3412,0.3412,0.3412,0.3427,0.3454,0.3456,0.349,0.354,0.3544,0.3562,0.3589,0.3589,0.3589,0.3589,0.3589,0.3589,0.3589,0.3589,0.3589,0.3589,0.3589,0.3589,0.3589,0.3589,0.3589,0.3589,0.3589,0.3589,0.3589,0.3589,0.3589,0.3589,0.3365,0.1572,0.0,0.0,0.0,0.0,0.0,0.0,0.0,0.0,0.0,0.0,0.0,0.0,0.0,0.0,0.0,0.0,0.0,0.0,0.0,0.0,0.0,0.0,0.0,0.0,0.0,0.0,0.0,0.0,0.0,0.0,0.0,0.0,0.0,0.0,0.2866,0.2874,0.2874,0.2874,0.2874,0.0,0.0,0.2905,0.2939,0.2957,0.2995,0.0,0.0,0.3106,0.314,0.3182,0.3202,0.3217,0.3228,0.323,0.323,0.323,0.323,0.323,0.0,0.0,0.0,0.0,0.0,0.0,0.3411,0.3412,0.3412,0.3412,0.3412,0.3412,0.3412,0.3412,0.3412,0.3412,0.3412,0.3412,0.3412,0.3412,0.3412,0.3412,0.3412,0.3429,0.3459,0.3478,0.3509,0.3549,0.3565,0.358,0.3589,0.3589,0.3589,0.3589,0.3589,0.3589,0.3589,0.3589,0.3589,0.3589,0.3589,0.3589,0.3589,0.3589,0.3589,0.3589,0.3589,0.3589,0.3589,0.3589,0.3589,0.3589,0.3589,0.2917,0.2245,0.2245,0.1122,0.0,0.0,0.0,0.0,0.0,0.0,0.0,0.0,0.0,0.0,0.0,0.0,0.0,0.0,0.0,0.0,0.0,0.0,0.0,0.0,0.0,0.0,0.0,0.0,0.0,0.0,0.0,0.0,0.0,0.0,0.0,0.2868,0.2874,0.2874,0.2874,0.0,0.0,0.2885,0.2909,0.2936,0.2957,0.3001,0.0,0.3103,0.0,0.0,0.0,0.3217,0.323,0.323,0.323,0.323,0.323,0.323,0.3234,0.3243,0.0,0.0,0.0,0.0,0.0,0.0,0.3412,0.3412,0.3412,0.3412,0.3412,0.3412,0.3412,0.3412,0.3412,0.3412,0.3412,0.3412,0.3412,0.3412,0.3412,0.3412,0.3434,0.3474,0.3495,0.3524,0.3562,0.3583,0.3589,0.3589,0.3589,0.3589,0.3589,0.3589,0.3589,0.3589,0.3589,0.3589,0.3589,0.3589,0.3589,0.3589,0.3589,0.3589,0.3589,0.3589,0.3589,0.3589,0.3589,0.3589,0.3589,0.3589,0.3589,0.3589,0.3594,0.2245,0.0898,0.0224,0.0,0.0,0.0,0.0,0.0,0.0,0.0,0.0,0.0,0.0,0.0,0.0,0.0,0.0,0.0,0.0,0.0,0.0,0.0,0.0,0.0,0.0,0.0,0.0,0.0,0.0,0.0,0.0,0.0,0.2874,0.2874,0.2874,0.2874,0.2874,0.0,0.2909,0.2939,0.2961,0.2962,0.3035,0.3107,0.3138,0.3168,0.0,0.3225,0.323,0.323,0.323,0.323,0.323,0.323,0.323,0.3242,0.3273,0.3303,0.0,0.0,0.0,0.0,0.0,0.3412,0.3412,0.3412,0.3412,0.3412,0.3412,0.3412,0.3412,0.3412,0.3412,0.3412,0.3412,0.3412,0.3412,0.3412,0.3412,0.3446,0.3502,0.3502,0.3538,0.3589,0.3589,0.3589,0.3589,0.3589,0.3589,0.3589,0.3589,0.3589,0.3589,0.3589,0.3589,0.3589,0.3589,0.3589,0.3589,0.3589,0.3589,0.3589,0.3589,0.3589,0.3589,0.3589,0.3589,0.3589,0.3589,0.3589,0.3589,0.3594,0.3594,0.2694,0.0449,0.0,0.0,0.0,0.0,0.0,0.0,0.0,0.0,0.0,0.0,0.0,0.0,0.0,0.0,0.0,0.0,0.0,0.0,0.0,0.0,0.0,0.0,0.0,0.0,0.0,0.0,0.0,0.0,0.0,0.2874,0.2874,0.2874,0.2874,0.2874,0.2882,0.2909,0.2939,0.0,0.0,0.3078,0.3114,0.3165,0.0,0.0,0.0,0.0,0.323,0.323,0.323,0.323,0.323,0.323,0.3242,0.3273,0.3303,0.0,0.0,0.0,0.0,0.0,0.3412,0.3412,0.3412,0.3412,0.3412,0.3412,0.3412,0.3412,0.3412,0.3412,0.3412,0.3412,0.3412,0.3412,0.3412,0.3434,0.3467,0.3506,0.3549,0.3576,0.3589,0.3589,0.3589,0.3589,0.3589,0.3589,0.3589,0.3589,0.3589,0.3589,0.3589,0.3589,0.3589,0.3589,0.3589,0.3589,0.3589,0.3589,0.3589,0.3589,0.3589,0.3589,0.3589,0.3589,0.3589,0.3589,0.3589,0.3589,0.3589,0.2245,0.0898,0.0224,0.0,0.0,0.0,0.0,0.0,0.0,0.0,0.0,0.0,0.0,0.0,0.0,0.0,0.0,0.0,0.0,0.0,0.0,0.0,0.0,0.0,0.0,0.0,0.0,0.0,0.0,0.0,0.0,0.0,0.2874,0.2874,0.2874,0.2874,0.2882,0.2901,0.2942,0.2966,0.3002,0.0,0.3107,0.313,0.3179,0.3197,0.0,0.3227,0.323,0.323,0.323,0.323,0.323,0.323,0.324,0.326,0.3291,0.3321,0.0,0.0,0.0,0.0,0.0,0.3412,0.3412,0.3412,0.3412,0.3412,0.3412,0.3412,0.3412,0.3412,0.3412,0.3412,0.3412,0.3412,0.3412,0.3414,0.3457,0.3493,0.3524,0.3569,0.3589,0.3589,0.3589,0.3589,0.3589,0.3589,0.3589,0.3589,0.3589,0.3589,0.3589,0.3589,0.3589,0.3589,0.3589,0.3589,0.3589,0.3589,0.3589,0.3589,0.3589,0.3589,0.3589,0.3589,0.3589,0.3589,0.3589,0.3589,0.3589,0.3589,0.1572,0.0,0.0,0.0,0.0,0.0,0.0,0.0,0.0,0.0,0.0,0.0,0.0,0.0,0.0,0.0,0.0,0.0,0.0,0.0,0.0,0.0,0.0,0.0,0.0,0.0,0.0,0.0,0.0,0.0,0.0,0.0,0.2874,0.3053,0.3053,0.2874,0.2897,0.2935,0.2994,0.3011,0.3032,0.3089,0.0,0.3156,0.3186,0.3414,0.3431,0.3431,0.3431,0.3431,0.3431,0.323,0.323,0.323,0.3257,0.3287,0.3318,0.3348,0.0,0.0,0.0,0.0,0.0,0.3412,0.3412,0.3412,0.3412,0.3412,0.3412,0.3412,0.3412,0.0,0.3412,0.3412,0.3412,0.3412,0.3415,0.3423,0.3479,0.352,0.3551,0.358,0.3589,0.3589,0.3589,0.3589,0.3589,0.3589,0.3589,0.3589,0.3589,0.3589,0.3589,0.3589,0.3589,0.3589,0.3589,0.3589,0.3589,0.3589,0.3589,0.3589,0.3589,0.3589,0.3589,0.3589,0.3589,0.3589,0.3589,0.3589,0.3589,0.3594,0.1572,0.0,0.0,0.0,0.0,0.0,0.0,0.0,0.0,0.0,0.0,0.0,0.0,0.0,0.0,0.0,0.0,0.0,0.0,0.0,0.0,0.0,0.0,0.0,0.0,0.0,0.0,0.0,0.0,0.0,0.0,0.0,0.3233,0.3947,0.4662,0.3233,0.2913,0.2961,0.2998,0.3044,0.3088,0.3126,0.3157,0.3187,0.3216,0.4634,0.5642,0.5642,0.5642,0.5642,0.5642,0.4236,0.323,0.323,0.3257,0.3287,0.3318,0.3348,0.0,0.0,0.0,0.0,0.3412,0.3412,0.3412,0.3412,0.3412,0.3412,0.3412,0.3412,0.3412,0.0,0.3412,0.3412,0.3412,0.3412,0.3438,0.3483,0.3495,0.3531,0.358,0.3587,0.3589,0.3589,0.3589,0.3589,0.3589,0.3589,0.3589,0.3589,0.3589,0.3589,0.3589,0.3589,0.3589,0.3589,0.3589,0.3589,0.3589,0.3589,0.3589,0.3589,0.3589,0.3589,0.3589,0.3589,0.3589,0.3589,0.3589,0.3589,0.3589,0.3589,0.1572,0.0,0.0,0.0,0.0,0.0,0.0,0.0,0.0,0.0,0.0,0.0,0.0,0.0,0.0,0.0,0.0,0.0,0.0,0.0,0.0,0.0,0.0,0.0,0.0,0.0,0.0,0.0,0.0,0.0,0.0,0.0,0.3233,0.359,0.4136,0.3271,0.2939,0.3343,0.4334,0.4606,0.4872,0.5873,0.5333,0.4987,0.6034,0.7251,0.7653,0.6648,0.6447,0.6045,0.504,0.383,0.3225,0.3225,0.3265,0.3299,0.3314,0.336,0.3395,0.0,0.0,0.3412,0.3412,0.3412,0.3412,0.3412,0.3412,0.3412,0.3412,0.3412,0.3412,0.3412,0.3412,0.3412,0.3412,0.3412,0.3445,0.3502,0.3502,0.3538,0.3589,0.3589,0.3589,0.3589,0.3589,0.3589,0.3589,0.3589,0.3589,0.3589,0.3589,0.3589,0.3589,0.3589,0.3589,0.3589,0.3589,0.3589,0.3589,0.3589,0.3589,0.3589,0.3589,0.3589,0.3589,0.3589,0.3589,0.3589,0.3589,0.3589,0.3589,0.3589,0.2692,0.1347,0.0224,0.0,0.0,0.0,0.0,0.0,0.0,0.0,0.0,0.0,0.0,0.0,0.0,0.0,0.0,0.0,0.0,0.0,0.0,0.0,0.0,0.0,0.0,0.0,0.0,0.0,0.0,0.0,0.0,0.0,0.3053,0.2878,0.2894,0.2949,0.2965,0.3543,0.57,0.6188,0.7049,0.9408,0.8299,0.7582,0.9444,0.9661,0.9055,0.7251,0.705,0.6246,0.4235,0.3423,0.322,0.3224,0.4504,0.4968,0.3524,0.3373,0.341,0.0,0.0,0.3412,0.3412,0.3412,0.3412,0.3412,0.3412,0.3412,0.3412,0.3412,0.3412,0.3412,0.3412,0.3412,0.3412,0.3418,0.345,0.3502,0.3502,0.3538,0.3589,0.3589,0.3589,0.3589,0.3589,0.3589,0.3589,0.3589,0.3589,0.3589,0.3589,0.3589,0.3589,0.3589,0.3589,0.3589,0.3589,0.3589,0.3589,0.3589,0.3589,0.3589,0.3589,0.3589,0.3589,0.3589,0.3589,0.3589,0.3589,0.3589,0.3589,0.3589,0.3589,0.2917,0.0449,0.0,0.0,0.0,0.0,0.0,0.0,0.0,0.0,0.0,0.0,0.0,0.0,0.0,0.0,0.0,0.0,0.0,0.0,0.0,0.0,0.0,0.0,0.0,0.0,0.0,0.0,0.0,0.0,0.0,0.3411,0.2891,0.2919,0.2953,0.2981,0.3581,0.5759,0.6415,0.7453,1.1452,1.0767,0.9444,0.9657,0.9661,0.9661,0.926,0.926,0.865,0.7239,0.4819,0.322,0.3245,0.9865,1.1433,0.418,0.338,0.3403,0.3411,0.3412,0.3412,0.3412,0.3412,0.3412,0.3412,0.3412,0.3412,0.3412,0.3412,0.3412,0.3412,0.3412,0.3412,0.3412,0.344,0.3469,0.3502,0.3502,0.3538,0.3589,0.3589,0.3589,0.3589,0.3589,0.3589,0.3589,0.3589,0.3589,0.3589,0.3589,0.3589,0.3589,0.3589,0.3589,0.3589,0.3589,0.3589,0.3589,0.3589,0.3589,0.3589,0.3589,0.3589,0.3589,0.3589,0.3589,0.3589,0.3589,0.3589,0.3589,0.3589,0.3589,0.2919,0.0449,0.0,0.0,0.0,0.0,0.0,0.0,0.0,0.0,0.0,0.0,0.0,0.0,0.0,0.0,0.0,0.0,0.0,0.0,0.0,0.0,0.0,0.0,0.0,0.0,0.0,0.0,0.0,0.0,0.0,0.3053,0.2894,0.3105,0.4426,0.3914,0.4151,0.8642,0.8935,0.9412,1.3643,1.3778,1.3267,1.3267,1.2263,1.1459,1.1459,1.0458,0.9661,0.9861,0.8231,0.7644,1.0168,1.4007,1.519,1.1308,0.6328,0.3393,0.3397,0.3401,0.3404,0.3404,0.341,0.3412,0.3412,0.3412,0.3412,0.3412,0.3412,0.3412,0.3412,0.3412,0.3412,0.3412,0.3444,0.3474,0.3502,0.352,0.3551,0.3589,0.3589,0.3589,0.3589,0.3589,0.3589,0.3589,0.3589,0.3589,0.3589,0.3589,0.3589,0.3589,0.3589,0.3589,0.3589,0.3589,0.3589,0.3589,0.3589,0.3589,0.3589,0.3589,0.3589,0.3589,0.3589,0.3589,0.3589,0.3589,0.3589,0.3589,0.3589,0.3589,0.2917,0.0449,0.0,0.0,0.0,0.0,0.0,0.0,0.0,0.0,0.0,0.0,0.0,0.0,0.0,0.0,0.0,0.0,0.0,0.0,0.0,0.0,0.0,0.0,0.0,0.0,0.0,0.0,0.0,0.0,0.0,0.2885,0.2912,0.3495,0.5552,0.4861,0.5299,1.1166,1.1279,1.1378,1.5276,1.6001,1.6096,1.613,1.4289,1.2863,1.2863,1.1459,1.0863,1.1678,1.1449,1.2495,1.5753,1.6714,1.7071,1.7058,1.077,0.6779,0.6782,0.6793,0.5947,0.3611,0.3404,0.341,0.3412,0.3412,0.3412,0.3412,0.3412,0.3412,0.3412,0.3412,0.3412,0.3414,0.3452,0.3482,0.3502,0.3534,0.3562,0.3589,0.3589,0.3589,0.3589,0.3589,0.3589,0.3589,0.3589,0.3589,0.3589,0.3589,0.3589,0.3589,0.3589,0.3589,0.3589,0.3589,0.3589,0.3589,0.3589,0.3589,0.3589,0.3589,0.3589,0.3589,0.3589,0.3589,0.3589,0.3589,0.3589,0.3589,0.3589,0.3589,0.2917,0.1121,0.0898,0.0673,0.0,0.0,0.0,0.0,0.0,0.0,0.0,0.0,0.0,0.0,0.0,0.0,0.0,0.0,0.0,0.0,0.0,0.0,0.0,0.0,0.0,0.0,0.0,0.0,0.0,0.0,0.0,0.2913,0.2957,0.3564,0.5433,0.6041,0.7068,1.1472,1.2504,1.3165,1.5612,1.6076,1.6123,1.6273,1.4355,1.2863,1.2863,1.2857,1.2458,1.1848,1.4059,1.5777,1.6062,1.6728,1.7078,1.6992,1.6598,1.6189,1.6227,1.6234,1.2565,0.3823,0.3399,0.3403,0.3411,0.3412,0.3412,0.3412,0.3412,0.3412,0.3412,0.3412,0.3412,0.3414,0.3474,0.3502,0.3502,0.3534,0.3562,0.3589,0.3589,0.3589,0.3589,0.3589,0.3589,0.3589,0.3589,0.3589,0.3589,0.3589,0.3589,0.3589,0.3589,0.3589,0.3589,0.3589,0.3589,0.3589,0.3589,0.3589,0.3589,0.3589,0.3589,0.3589,0.3589,0.3589,0.3589,0.3589,0.3589,0.3589,0.3589,0.3589,0.3589,0.3365,0.3369,0.2694,0.0449,0.0,0.0,0.0,0.0,0.0,0.0,0.0,0.0,0.0,0.0,0.0,0.0,0.0,0.0,0.0,0.0,0.0,0.0,0.0,0.0,0.0,0.0,0.0,0.0,0.0,0.0,0.2939,0.2975,0.3569,0.5438,0.6046,0.7265,1.1676,1.2509,1.3361,1.5618,1.6083,1.6096,1.6151,1.4301,1.329,1.4787,1.3919,1.3262,1.4464,1.5472,1.6185,1.6068,1.6728,1.7071,1.6971,1.6998,1.7005,1.7019,1.7046,1.5543,1.2319,0.6578,0.3399,0.3403,0.3408,0.3412,0.3412,0.3412,0.3412,0.3412,0.3412,0.3412,0.3414,0.3475,0.3502,0.3506,0.3551,0.358,0.3589,0.3589,0.3589,0.3589,0.3589,0.3589,0.3589,0.3589,0.3589,0.3589,0.3589,0.3589,0.3589,0.3589,0.3589,0.3589,0.3589,0.3589,0.3589,0.3589,0.3589,0.3589,0.3589,0.3589,0.3589,0.3589,0.3589,0.3589,0.3589,0.3589,0.3589,0.3589,0.3589,0.3589,0.3589,0.3589,0.2694,0.0449,0.0,0.0,0.0,0.0,0.0,0.0,0.0,0.0,0.0,0.0,0.0,0.0,0.0,0.0,0.0,0.0,0.0,0.0,0.0,0.0,0.0,0.0,0.0,0.0,0.0,0.0,0.3153,0.356,0.434,0.5654,0.606,0.7265,1.1676,1.2509,1.3361,1.5618,1.6083,1.6096,1.6151,1.4944,1.4556,1.6024,1.4931,1.447,1.5877,1.6083,1.6171,1.6002,1.6701,1.7044,1.7092,1.6951,1.6978,1.6978,1.6998,0.0,1.7032,1.1262,0.6589,0.3403,0.3408,0.3412,0.3412,0.3412,0.3412,0.3412,0.3412,0.3412,0.3414,0.3475,0.3502,0.3506,0.3565,0.3589,0.3589,0.3589,0.3589,0.3589,0.3589,0.3589,0.3589,0.3589,0.3589,0.3589,0.3589,0.3589,0.3589,0.3589,0.3589,0.3589,0.3589,0.3589,0.3589,0.3589,0.3589,0.3589,0.3589,0.3589,0.3589,0.3589,0.3589,0.3589,0.3589,0.3589,0.3589,0.3589,0.3589,0.3589,0.3589,0.3589,0.3141,0.1347,0.0449,0.0,0.0,0.0,0.0,0.0,0.0,0.0,0.0,0.0,0.0,0.0,0.0,0.0,0.0,0.0,0.0,0.0,0.0,0.0,0.0,0.0,0.0,0.0,0.0,0.0,0.0,0.0,0.0,0.609,0.609,0.7265,1.1482,1.2509,1.3165,1.5618,1.6083,1.613,1.6279,1.6307,1.6259,1.6103,1.6083,1.609,1.6083,1.6083,1.6137,1.6085,1.6646,1.7002,1.6955,1.7106,1.6978,1.6978,1.6978,1.6998,1.7026,1.6644,1.2581,0.3624,0.3412,0.3412,0.3412,0.3412,0.3412,0.3412,0.3412,0.3412,0.3414,0.3474,0.3502,0.3506,0.3562,0.3589,0.3589,0.3589,0.3589,0.3589,0.3589,0.3589,0.3589,0.3589,0.3589,0.3589,0.3589,0.3589,0.3589,0.3589,0.3589,0.3589,0.3589,0.3589,0.3589,0.3589,0.3589,0.3589,0.3589,0.3589,0.3589,0.3589,0.3589,0.3589,0.3589,0.3589,0.3589,0.3589,0.3589,0.3589,0.3589,0.3589,0.3589,0.3594,0.1572,0.0,0.0,0.0,0.0,0.0,0.0,0.0,0.0,0.0,0.0,0.0,0.0,0.0,0.0,0.0,0.0,0.0,0.0,0.0,0.0,0.0,0.0,0.0,0.0,0.0,0.5294,0.0,0.0,0.0,0.0,0.0,0.7793,1.0361,1.2775,1.3615,1.5074,1.6096,1.6137,1.6232,1.6259,1.6103,1.6178,1.6205,1.6096,1.6083,1.6137,1.6085,1.6435,1.6585,1.6948,1.7106,1.6978,0.0,1.6978,1.6985,1.6992,1.0813,0.594,0.3401,0.3408,0.3412,0.3412,0.3412,0.3412,0.3412,0.3412,0.3412,0.3414,0.3452,0.3482,0.3506,0.354,0.3569,0.3589,0.3589,0.3589,0.3589,0.3589,0.3589,0.3589,0.3589,0.3589,0.3589,0.3589,0.3589,0.3589,0.3589,0.3589,0.3589,0.3589,0.3589,0.3589,0.3589,0.3589,0.3589,0.3589,0.3589,0.3589,0.3589,0.3589,0.3589,0.3589,0.3589,0.3589,0.3589,0.3589,0.3589,0.3589,0.3589,0.3589,0.3589,0.157,0.0,0.0,0.0,0.0,0.0,0.0,0.0,0.0,0.0,0.0,0.0,0.0,0.0,0.0,0.0,0.0,0.0,0.0,0.0,0.0,0.0,0.0,0.0,0.0,0.0,0.0,0.0,0.5142,0.3432,0.0,0.0,0.721,0.9582,1.1989,1.3813,1.5273,1.6083,1.6083,1.6252,1.6347,1.6198,1.63,1.6327,1.611,1.6083,1.6117,1.5998,1.6138,1.649,1.6859,1.701,1.6917,1.6978,1.6978,1.6985,1.6998,1.1887,0.7855,0.5311,0.4047,0.3412,0.3412,0.3412,0.3412,0.3412,0.3412,0.3412,0.3412,0.3444,0.3474,0.3502,0.3534,0.3562,0.3589,0.3589,0.3589,0.3589,0.3589,0.3589,0.3589,0.3589,0.3589,0.3589,0.3589,0.3589,0.3589,0.3589,0.3589,0.3589,0.3589,0.3589,0.3589,0.3589,0.3589,0.3589,0.3589,0.3589,0.3589,0.3589,0.3589,0.3589,0.3589,0.3589,0.3589,0.3589,0.3589,0.3589,0.3589,0.3589,0.3589,0.3589,0.2467,0.157,0.1572,0.0673,0.0,0.0,0.0,0.0,0.0,0.0,0.0,0.0,0.0,0.0,0.0,0.0,0.0,0.0,0.0,0.0,0.0,0.0,0.0,0.0,0.0,0.0,0.0,0.0,0.0,0.0,0.0,0.0,0.7991,0.9192,1.0615,1.4614,1.5678,1.6083,1.6083,1.632,1.6476,1.6334,1.6442,1.6442,1.6151,1.609,1.6083,1.6083,1.6011,1.6368,1.6925,1.6879,1.703,1.6971,1.6978,1.6992,1.7026,1.7066,1.4286,0.808,0.5324,0.3837,0.3412,0.3412,0.3412,0.3412,0.3412,0.3412,0.3412,0.344,0.3471,0.3502,0.3531,0.3558,0.3589,0.3589,0.3589,0.3589,0.3589,0.3589,0.3589,0.3589,0.3589,0.3589,0.3589,0.3589,0.3589,0.3589,0.3589,0.3589,0.3589,0.3589,0.3589,0.3589,0.3589,0.3589,0.3589,0.3589,0.3589,0.3589,0.3589,0.3589,0.3589,0.3589,0.3589,0.3589,0.3589,0.3589,0.3589,0.3589,0.3589,0.3589,0.3589,0.3589,0.3594,0.1572,0.0,0.0,0.0,0.0,0.0,0.0,0.0,0.0,0.0,0.0,0.0,0.0,0.0,0.0,0.0,0.0,0.0,0.0,0.0,0.0,0.0,0.0,0.0,0.0,0.0,0.0,0.0,0.0,0.4102,0.7049,0.9832,1.0822,1.3667,1.6083,1.6083,1.632,1.6476,1.6334,1.653,1.6605,1.6307,1.6157,1.6083,1.6083,1.6218,1.6368,1.651,1.6659,1.6815,1.6971,1.6978,1.6985,1.6992,1.7026,1.4246,0.8064,0.7228,0.5962,0.3412,0.3412,0.3412,0.3412,0.3412,0.3412,0.3412,0.3418,0.345,0.3502,0.3509,0.354,0.3589,0.3589,0.3589,0.3589,0.3589,0.3589,0.3589,0.3589,0.3589,0.3589,0.3589,0.3589,0.3589,0.3589,0.3589,0.3589,0.3589,0.3589,0.3589,0.3589,0.3589,0.3589,0.3589,0.3589,0.3589,0.3589,0.3589,0.3589,0.3589,0.3589,0.3589,0.3589,0.3589,0.3589,0.3589,0.3589,0.3589,0.3589,0.3589,0.3589,0.3594,0.1572,0.0,0.0,0.0,0.0,0.0,0.0,0.0,0.0,0.0,0.0,0.0,0.0,0.0,0.0,0.0,0.0,0.0,0.0,0.0,0.0,0.0,0.0,0.0,0.0,0.0,0.3432,0.0,0.0,0.0,0.7244,0.9832,1.1016,1.3866,1.6083,1.6083,1.6266,1.6415,1.6415,1.6537,1.6612,1.6537,1.6334,1.6164,1.609,1.6151,1.6252,1.6402,1.6551,1.6734,1.6965,1.6978,1.6978,1.6978,1.7012,1.509,1.0817,0.8925,0.7022,0.5109,0.4048,0.3412,0.3412,0.3412,0.3412,0.3412,0.3412,0.3437,0.348,0.3495,0.3527,0.3569,0.3583,0.3589,0.3589,0.3589,0.3589,0.3589,0.3589,0.3589,0.3589,0.3589,0.3589,0.3589,0.3589,0.3589,0.3589,0.3589,0.3589,0.3589,0.3589,0.3589,0.3589,0.3589,0.3589,0.3589,0.3589,0.3589,0.3589,0.3589,0.3589,0.3589,0.3589,0.3589,0.3589,0.3589,0.3589,0.3589,0.3589,0.3589,0.3589,0.3589,0.1572,0.0,0.0,0.0,0.0,0.0,0.0,0.0,0.0,0.0,0.0,0.0,0.0,0.0,0.0,0.0,0.0,0.0,0.0,0.0,0.0,0.0,0.0,0.0,0.0,0.0,0.0,0.0,0.4798,0.0,0.0,0.0,1.2615,1.4669,1.6083,1.6083,1.6205,1.6341,1.6422,1.651,1.6585,1.6653,1.651,1.6327,1.6144,1.6096,1.6144,1.6293,1.6463,1.6666,1.6917,1.6965,1.6978,1.6978,1.7005,1.594,1.358,1.0196,0.7868,0.6804,0.4473,0.3412,0.3412,0.3412,0.3412,0.3412,0.3412,0.3429,0.3459,0.3483,0.3513,0.3549,0.3572,0.3583,0.3589,0.3589,0.3594,0.36,0.36,0.3604,0.3607,0.3607,0.3607,0.3607,0.36,0.3594,0.3589,0.3589,0.3589,0.3589,0.3589,0.3589,0.3589,0.3589,0.3589,0.3589,0.3589,0.3589,0.3589,0.3589,0.3589,0.3589,0.3589,0.3589,0.3589,0.3589,0.3589,0.3589,0.3589,0.3589,0.3589,0.3589,0.1796,0.0449,0.0,0.0,0.0,0.0,0.0,0.0,0.0,0.0,0.0,0.0,0.0,0.0,0.0,0.0,0.0,0.0,0.0,0.0,0.0,0.0,0.0,0.0,0.0,0.0,0.0,0.8416,0.0,0.0,0.0,1.2497,1.2835,0.0,1.6083,1.6083,0.0,0.0,1.6151,1.6463,1.6639,1.6395,1.6558,1.6598,1.632,1.6164,1.6144,1.6293,1.6564,1.6734,1.6775,1.6904,1.6978,1.6978,1.6985,1.592,1.3575,1.1253,0.8925,0.6804,0.4473,0.3412,0.3412,0.3412,0.3412,0.3412,0.3412,0.3429,0.3457,0.3461,0.3493,0.3544,0.3549,0.3565,0.3589,0.3589,0.3607,0.3632,0.3632,0.3645,0.367,0.367,0.367,0.3667,0.3639,0.3611,0.3589,0.3589,0.3589,0.3589,0.3589,0.3589,0.3589,0.3589,0.3589,0.3589,0.3589,0.3589,0.3589,0.3589,0.3589,0.3589,0.3589,0.3589,0.3589,0.3589,0.3589,0.3589,0.3589,0.3589,0.3589,0.3589,0.3369,0.247,0.0224,0.0,0.0,0.0,0.0,0.0,0.0,0.0,0.0,0.0,0.0,0.0,0.0,0.0,0.0,0.0,0.0,0.0,0.0,0.0,0.0,0.0,0.0,0.0,0.0,0.0,0.0,0.0,0.0,1.2913,0.0,0.0,0.0,0.0,0.0,0.0,0.0,1.6374,1.651,1.6558,1.6592,1.6571,1.6449,1.63,0.0,1.63,1.6422,1.6564,1.6734,1.6809,1.689,1.6978,1.6978,1.6551,1.5697,1.2098,0.9772,0.8713,0.5111,0.3412,0.3412,0.3412,0.3412,0.3412,0.3412,0.3419,0.3431,0.3449,0.3471,0.3495,0.3513,0.3527,0.354,0.3558,0.3594,0.3636,0.3636,0.3656,0.3681,0.3681,0.3681,0.3677,0.3667,0.3652,0.3643,0.3643,0.3643,0.3643,0.3643,0.3643,0.3643,0.3643,0.3628,0.3618,0.3618,0.3604,0.3589,0.3589,0.3589,0.3589,0.3589,0.3589,0.3589,0.3589,0.3589,0.3589,0.3589,0.3589,0.3589,0.3589,0.3589,0.2694,0.0224,0.0,0.0,0.0,0.0,0.0,0.0,0.0,0.0,0.0,0.0,0.0,0.0,0.0,0.0,0.0,0.0,0.0,0.0,0.0,0.0,1.3315,0.0,0.0,0.0,0.0,0.0,0.0,0.0,0.0,0.0,0.0,0.0,0.0,0.0,0.0,0.0,0.0,1.6368,1.6544,1.6578,1.6585,1.6585,1.6422,0.0,0.0,1.6307,1.6395,1.6612,1.6707,1.6802,1.691,1.6958,1.6768,1.6124,1.2309,0.9984,0.9349,0.5324,0.3412,0.3412,0.3412,0.3412,0.3412,0.3412,0.3412,0.3414,0.3435,0.3449,0.3459,0.348,0.3495,0.3506,0.3524,0.3565,0.3614,0.3639,0.3667,0.3694,0.3701,0.3701,0.3694,0.3694,0.3688,0.3681,0.3681,0.3681,0.3681,0.3681,0.3681,0.3681,0.3681,0.3663,0.3649,0.3649,0.3632,0.3614,0.3614,0.3607,0.3604,0.3604,0.3596,0.3589,0.3589,0.3589,0.3589,0.3589,0.3589,0.3589,0.3589,0.3589,0.2917,0.1122,0.0449,0.0,0.0,0.0,0.0,0.0,0.0,0.0,0.0,0.0,0.0,0.0,0.0,0.0,0.0,0.0,0.0,0.0,0.0,0.0,0.0,0.0,0.0,1.5442,0.0,0.0,0.0,0.0,1.6076,0.0,0.0,0.0,0.0,0.0,0.0,0.0,0.0,0.0,0.0,1.6469,1.6741,1.6741,1.6483,1.6307,0.0,1.6307,1.6313,1.6327,1.6585,1.6754,1.6754,1.6897,1.5914,1.3785,1.1464,0.9133,0.7016,0.4473,0.3412,0.3412,0.3412,0.3412,0.3412,0.3412,0.3412,0.3412,0.3412,0.343,0.3457,0.3459,0.3476,0.3502,0.3502,0.352,0.3558,0.3645,0.3699,0.373,0.3757,0.375,0.3726,0.3726,0.3705,0.3681,0.3681,0.3681,0.3681,0.3681,0.3681,0.3681,0.3681,0.3681,0.3681,0.3681,0.3677,0.3677,0.3677,0.3656,0.3636,0.3636,0.3611,0.3589,0.3589,0.3589,0.3589,0.3589,0.3589,0.3589,0.3589,0.3589,0.3589,0.3594,0.1347,0.0,0.0,0.0,0.0,0.0,0.0,0.0,0.0,0.0,0.0,0.0,0.0,0.0,0.0,0.0,0.0,0.0,0.0,0.0,0.0,0.0,1.5805,1.5906,0.0,0.0,0.0,0.0,0.0,0.0,0.0,0.0,0.0,0.0,0.0,0.0,0.0,0.0,0.0,1.653,1.6748,1.6748,1.5409,1.4867,1.6125,1.488,1.4672,1.6105,1.649,1.6646,1.6748,1.6897,1.5914,1.3575,1.1464,0.9137,0.6804,0.4473,0.3412,0.3412,0.3412,0.3412,0.3412,0.3412,0.3412,0.3412,0.3412,0.3418,0.3427,0.3427,0.3433,0.3445,0.3464,0.3479,0.3495,0.3565,0.3621,0.3899,0.3701,0.3705,0.3694,0.3694,0.3688,0.3911,0.3911,0.3911,0.3911,0.3911,0.3694,0.3712,0.3712,0.3712,0.3712,0.3712,0.3694,0.3681,0.3681,0.3674,0.3667,0.3667,0.3656,0.3643,0.3625,0.3621,0.3614,0.3594,0.3589,0.3589,0.3589,0.3589,0.3589,0.3594,0.2245,0.0898,0.0,0.0,0.0,0.0,0.0,0.0,0.0,0.0,0.0,0.0,0.0,0.0,0.0,0.0,0.0,0.0,0.0,0.0,1.5906,1.5934,0.0,0.0,1.6083,0.0,1.6083,0.0,0.0,0.0,0.0,0.0,0.0,0.0,0.0,0.0,0.0,0.0,0.0,1.6517,1.6273,1.5691,1.4861,1.4983,1.6205,1.4905,1.4653,1.6031,1.6368,1.651,0.0,0.0,1.5444,1.252,1.1042,0.8713,0.5534,0.4048,0.3412,0.3412,0.3412,0.3412,0.3412,0.3412,0.3412,0.3412,0.3412,0.3412,0.3412,0.3412,0.3412,0.3414,0.3433,0.3441,0.3449,0.352,0.3583,0.3639,0.3656,0.367,0.3681,0.3681,0.3681,0.3681,0.3681,0.3681,0.3684,0.3694,0.3701,0.3712,0.3723,0.3719,0.3708,0.3708,0.3694,0.3911,0.3911,0.3904,0.3667,0.3677,0.367,0.3663,0.3652,0.3652,0.3639,0.3596,0.3589,0.3589,0.3589,0.3589,0.3589,0.3594,0.247,0.1347,0.0,0.0,0.0,0.0,0.0,0.0,0.0,0.0,0.0,0.0,0.0,0.0,0.0,0.0,0.0,0.0,0.0,0.0]}]]